| time (UTC) | temp F | wind direction | speed MPH | gust MPH | rain 1hr in | rain 24hr in | rain mn in | humidity % | barometer mb |
| 20260905115003 | 64 | 310 | 14.0 | 22.0 | 0.00 | 0.00 | 0.00 | 64 | |
| 20260905114903 | 64 | 308 | 14.0 | 22.0 | 0.00 | 0.00 | 0.00 | 64 | |
| 20260905114803 | 64 | 306 | 14.0 | 22.0 | 0.00 | 0.00 | 0.00 | 64 | |
| 20260905114703 | 64 | 304 | 14.0 | 22.0 | 0.00 | 0.00 | 0.00 | 64 | |
| 20260905114603 | 64 | 300 | 14.0 | 22.0 | 0.00 | 0.00 | 0.00 | 63 | |
| 20260905114503 | 64 | 299 | 14.0 | 22.0 | 0.00 | 0.00 | 0.00 | 63 | |
| 20260905114403 | 64 | 297 | 14.0 | 22.0 | 0.00 | 0.00 | 0.00 | 64 | |
| 20260905114324 | 64 | 296 | 14.0 | 22.0 | 0.00 | 0.00 | 0.00 | 64 | |
| 20260905114203 | 64 | 294 | 14.0 | 22.0 | 0.00 | 0.00 | 0.00 | 64 | |
| 20260905114103 | 64 | 292 | 15.0 | 22.0 | 0.00 | 0.00 | 0.00 | 64 | |
| 20260905114003 | 64 | 290 | 15.0 | 22.0 | 0.00 | 0.00 | 0.00 | 64 | |
| 20260905113903 | 64 | 290 | 16.0 | 25.0 | 0.00 | 0.00 | 0.00 | 64 | |
| 20260905113824 | 64 | 289 | 16.0 | 25.0 | 0.00 | 0.00 | 0.00 | 64 | |
| 20260905113703 | 64 | 288 | 16.0 | 25.0 | 0.00 | 0.00 | 0.00 | 64 | |
| 20260905113603 | 64 | 289 | 16.0 | 25.0 | 0.00 | 0.00 | 0.00 | 63 | |
| 20260905113524 | 64 | 290 | 16.0 | 25.0 | 0.00 | 0.00 | 0.00 | 63 | |
| 20260905113425 | 64 | 292 | 15.0 | 25.0 | 0.00 | 0.00 | 0.00 | 63 | |
| 20260905113303 | 64 | 294 | 16.0 | 25.0 | 0.00 | 0.00 | 0.00 | 61 | |
| 20260905113203 | 64 | 297 | 16.0 | 25.0 | 0.00 | 0.00 | 0.00 | 61 | |
| 20260905113103 | 65 | 299 | 15.0 | 25.0 | 0.00 | 0.00 | 0.00 | 61 | |
| 20260905113003 | 65 | 302 | 15.0 | 25.0 | 0.00 | 0.00 | 0.00 | 61 | |
| 20260905112903 | 65 | 303 | 15.0 | 22.0 | 0.00 | 0.00 | 0.00 | 63 | |
| 20260905112803 | 65 | 305 | 15.0 | 22.0 | 0.00 | 0.00 | 0.00 | 62 | |
| 20260905112724 | 65 | 306 | 15.0 | 22.0 | 0.00 | 0.00 | 0.00 | 62 | |
| 20260905112603 | 65 | 308 | 16.0 | 23.0 | 0.00 | 0.00 | 0.00 | 63 | |
| 20260905112503 | 65 | 307 | 16.0 | 23.0 | 0.00 | 0.00 | 0.00 | 62 | |
| 20260905112403 | 65 | 308 | 17.0 | 23.0 | 0.00 | 0.00 | 0.00 | 63 | |
| 20260905112305 | 65 | 309 | 17.0 | 23.0 | 0.00 | 0.00 | 0.00 | 63 | |
| 20260905112203 | 65 | 309 | 18.0 | 24.0 | 0.00 | 0.00 | 0.00 | 63 | |
| 20260905112103 | 65 | 310 | 18.0 | 26.0 | 0.00 | 0.00 | 0.00 | 64 | |
| 20260905112003 | 65 | 311 | 19.0 | 26.0 | 0.00 | 0.00 | 0.00 | 62 | |
| 20260905111903 | 65 | 312 | 18.0 | 26.0 | 0.00 | 0.00 | 0.00 | 62 | |
| 20260905111803 | 65 | 314 | 18.0 | 26.0 | 0.00 | 0.00 | 0.00 | 62 | |
| 20260905111703 | 65 | 314 | 18.0 | 26.0 | 0.00 | 0.00 | 0.00 | 62 | |
| 20260905111624 | 65 | 314 | 18.0 | 26.0 | 0.00 | 0.00 | 0.00 | 62 | |
| 20260905111503 | 65 | 315 | 18.0 | 26.0 | 0.00 | 0.00 | 0.00 | 62 | |
| 20260905111403 | 65 | 313 | 18.0 | 26.0 | 0.00 | 0.00 | 0.00 | 61 | |
| 20260905111303 | 65 | 312 | 17.0 | 26.0 | 0.00 | 0.00 | 0.00 | 61 | |
| 20260905111225 | 65 | 310 | 17.0 | 26.0 | 0.00 | 0.00 | 0.00 | 61 | |
| 20260905111124 | 65 | 310 | 17.0 | 23.0 | 0.00 | 0.00 | 0.00 | 62 | |
| 20260905111003 | 65 | 310 | 17.0 | 24.0 | 0.00 | 0.00 | 0.00 | 62 | |
| 20260905110903 | 65 | 309 | 17.0 | 24.0 | 0.00 | 0.00 | 0.00 | 62 | |
| 20260905110803 | 65 | 307 | 17.0 | 24.0 | 0.00 | 0.00 | 0.00 | 62 | |
| 20260905110703 | 65 | 305 | 16.0 | 24.0 | 0.00 | 0.00 | 0.00 | 61 | |
| 20260905110603 | 65 | 303 | 16.0 | 24.0 | 0.00 | 0.00 | 0.00 | 63 | |
| 20260905110503 | 65 | 300 | 16.0 | 24.0 | 0.00 | 0.00 | 0.00 | 63 | |
| 20260905110403 | 65 | 301 | 16.0 | 24.0 | 0.00 | 0.00 | 0.00 | 62 | |
| 20260905110303 | 65 | 302 | 16.0 | 24.0 | 0.00 | 0.00 | 0.00 | 62 | |
| 20260905110224 | 65 | 304 | 16.0 | 24.0 | 0.00 | 0.00 | 0.00 | 62 | |
| 20260905110003 | 65 | 303 | 16.0 | 24.0 | 0.00 | 0.00 | 0.00 | 63 | |
| 20260905105904 | 65 | 304 | 15.0 | 24.0 | 0.00 | 0.00 | 0.00 | 64 | |
| 20260905105803 | 65 | 306 | 15.0 | 22.0 | 0.00 | 0.00 | 0.00 | 64 | |
| 20260905105704 | 65 | 306 | 15.0 | 22.0 | 0.00 | 0.00 | 0.00 | 64 | |
| 20260905105603 | 65 | 307 | 15.0 | 22.0 | 0.00 | 0.00 | 0.00 | 65 | |
| 20260905105503 | 65 | 309 | 15.0 | 22.0 | 0.00 | 0.00 | 0.00 | 65 | |
| 20260905105403 | 64 | 309 | 15.0 | 22.0 | 0.00 | 0.00 | 0.00 | 65 | |
| 20260905105306 | 64 | 309 | 15.0 | 22.0 | 0.00 | 0.00 | 0.00 | 64 | |
| 20260905105203 | 64 | 305 | 15.0 | 22.0 | 0.00 | 0.00 | 0.00 | 66 | |
| 20260905105103 | 64 | 303 | 15.0 | 21.0 | 0.00 | 0.00 | 0.00 | 65 | |
| 20260905105024 | 64 | 302 | 15.0 | 21.0 | 0.00 | 0.00 | 0.00 | 65 | |
| 20260905104924 | 64 | 299 | 14.0 | 21.0 | 0.00 | 0.00 | 0.00 | 67 | |
| 20260905104803 | 64 | 296 | 13.0 | 21.0 | 0.00 | 0.00 | 0.00 | 66 | |
| 20260905104724 | 64 | 294 | 13.0 | 21.0 | 0.00 | 0.00 | 0.00 | 66 | |
| 20260905104603 | 64 | 294 | 12.0 | 21.0 | 0.00 | 0.00 | 0.00 | 66 | |
| 20260905104503 | 64 | 293 | 12.0 | 21.0 | 0.00 | 0.00 | 0.00 | 66 | |
| 20260905104403 | 64 | 290 | 13.0 | 21.0 | 0.00 | 0.00 | 0.00 | 66 | |
| 20260905104303 | 63 | 288 | 14.0 | 24.0 | 0.00 | 0.00 | 0.00 | 65 | |
| 20260905104203 | 63 | 290 | 14.0 | 24.0 | 0.00 | 0.00 | 0.00 | 65 | |
| 20260905104103 | 64 | 290 | 14.0 | 24.0 | 0.00 | 0.00 | 0.00 | 65 | |
| 20260905104003 | 64 | 290 | 15.0 | 24.0 | 0.00 | 0.00 | 0.00 | 65 | |
| 20260905103924 | 64 | 290 | 15.0 | 24.0 | 0.00 | 0.00 | 0.00 | 65 | |
| 20260905103803 | 64 | 292 | 16.0 | 24.0 | 0.00 | 0.00 | 0.00 | 65 | |
| 20260905103703 | 64 | 292 | 17.0 | 24.0 | 0.00 | 0.00 | 0.00 | 64 | |
| 20260905103603 | 64 | 292 | 17.0 | 24.0 | 0.00 | 0.00 | 0.00 | 64 | |
| 20260905103524 | 64 | 292 | 17.0 | 24.0 | 0.00 | 0.00 | 0.00 | 64 | |
| 20260905103403 | 64 | 293 | 17.0 | 24.0 | 0.00 | 0.00 | 0.00 | 63 | |
| 20260905103324 | 64 | 295 | 17.0 | 25.0 | 0.00 | 0.00 | 0.00 | 63 | |
| 20260905103203 | 64 | 294 | 18.0 | 25.0 | 0.00 | 0.00 | 0.00 | 64 | |
| 20260905103103 | 64 | 295 | 17.0 | 25.0 | 0.00 | 0.00 | 0.00 | 64 | |
| 20260905103003 | 64 | 296 | 17.0 | 25.0 | 0.00 | 0.00 | 0.00 | 66 | |
| 20260905102903 | 64 | 296 | 16.0 | 25.0 | 0.00 | 0.00 | 0.00 | 67 | |
| 20260905102803 | 64 | 293 | 16.0 | 25.0 | 0.00 | 0.00 | 0.00 | 65 | |
| 20260905102703 | 64 | 292 | 16.0 | 25.0 | 0.00 | 0.00 | 0.00 | 66 | |
| 20260905102624 | 63 | 292 | 16.0 | 25.0 | 0.00 | 0.00 | 0.00 | 66 | |
| 20260905102503 | 63 | 291 | 15.0 | 25.0 | 0.00 | 0.00 | 0.00 | 64 | |
| 20260905102424 | 63 | 290 | 15.0 | 25.0 | 0.00 | 0.00 | 0.00 | 64 | |
| 20260905102306 | 64 | 288 | 15.0 | 23.0 | 0.00 | 0.00 | 0.00 | 66 | |
| 20260905102224 | 64 | 287 | 15.0 | 23.0 | 0.00 | 0.00 | 0.00 | 66 | |
| 20260905102103 | 64 | 288 | 15.0 | 23.0 | 0.00 | 0.00 | 0.00 | 66 | |
| 20260905102003 | 64 | 287 | 15.0 | 23.0 | 0.00 | 0.00 | 0.00 | 66 | |
| 20260905101904 | 64 | 288 | 16.0 | 23.0 | 0.00 | 0.00 | 0.00 | 67 | |
| 20260905101803 | 63 | 291 | 16.0 | 24.0 | 0.00 | 0.00 | 0.00 | 66 | |
| 20260905101703 | 63 | 293 | 17.0 | 24.0 | 0.00 | 0.00 | 0.00 | 65 | |
| 20260905101624 | 64 | 293 | 17.0 | 26.0 | 0.00 | 0.00 | 0.00 | 65 | |
| 20260905101503 | 64 | 295 | 17.0 | 26.0 | 0.00 | 0.00 | 0.00 | 67 | |
| 20260905101424 | 64 | 296 | 17.0 | 26.0 | 0.00 | 0.00 | 0.00 | 67 | |
| 20260905101303 | 64 | 298 | 17.0 | 26.0 | 0.00 | 0.00 | 0.00 | 67 | |
| 20260905101203 | 64 | 299 | 17.0 | 26.0 | 0.00 | 0.00 | 0.00 | 66 | |
| 20260905101104 | 64 | 298 | 17.0 | 26.0 | 0.00 | 0.00 | 0.00 | 67 | |
| 20260905101003 | 63 | 298 | 17.0 | 26.0 | 0.00 | 0.00 | 0.00 | 68 | |
| 20260905100903 | 63 | 298 | 16.0 | 26.0 | 0.00 | 0.00 | 0.00 | 67 | |
| 20260905100803 | 63 | 297 | 16.0 | 26.0 | 0.00 | 0.00 | 0.00 | 67 | |
| 20260905100703 | 63 | 295 | 15.0 | 26.0 | 0.00 | 0.00 | 0.00 | 68 | |
| 20260905100603 | 63 | 294 | 15.0 | 26.0 | 0.00 | 0.00 | 0.00 | 70 | |
| 20260905100503 | 63 | 293 | 15.0 | 21.0 | 0.00 | 0.00 | 0.00 | 70 | |
| 20260905100403 | 62 | 292 | 15.0 | 23.0 | 0.00 | 0.00 | 0.00 | 71 | |
| 20260905100324 | 62 | 290 | 15.0 | 23.0 | 0.00 | 0.00 | 0.00 | 71 | |
| 20260905100203 | 62 | 288 | 15.0 | 23.0 | 0.00 | 0.00 | 0.00 | 70 | |
| 20260905100003 | 62 | 288 | 15.0 | 23.0 | 0.00 | 0.00 | 0.00 | 70 | |
| 20260905095903 | 62 | 288 | 16.0 | 23.0 | 0.00 | 0.00 | 0.00 | 69 | |
| 20260905095803 | 62 | 289 | 16.0 | 23.0 | 0.00 | 0.00 | 0.00 | 69 | |
| 20260905095724 | 62 | 290 | 16.0 | 24.0 | 0.00 | 0.00 | 0.00 | 69 | |
| 20260905095603 | 62 | 290 | 16.0 | 24.0 | 0.00 | 0.00 | 0.00 | 69 | |
| 20260905095503 | 62 | 289 | 16.0 | 24.0 | 0.00 | 0.00 | 0.00 | 70 | |
| 20260905095403 | 62 | 289 | 16.0 | 25.0 | 0.00 | 0.00 | 0.00 | 69 | |
| 20260905095305 | 63 | 289 | 17.0 | 25.0 | 0.00 | 0.00 | 0.00 | 69 | |
| 20260905095203 | 63 | 289 | 17.0 | 25.0 | 0.00 | 0.00 | 0.00 | 69 | |
| 20260905095103 | 63 | 290 | 17.0 | 25.0 | 0.00 | 0.00 | 0.00 | 69 | |
| 20260905095003 | 63 | 291 | 17.0 | 25.0 | 0.00 | 0.00 | 0.00 | 70 | |
| 20260905094903 | 63 | 293 | 17.0 | 25.0 | 0.00 | 0.00 | 0.00 | 69 | |
| 20260905094803 | 63 | 293 | 17.0 | 25.0 | 0.00 | 0.00 | 0.00 | 70 | |
| 20260905094704 | 63 | 293 | 17.0 | 25.0 | 0.00 | 0.00 | 0.00 | 70 | |
| 20260905094603 | 63 | 292 | 17.0 | 25.0 | 0.00 | 0.00 | 0.00 | 69 | |
| 20260905094503 | 62 | 292 | 17.0 | 25.0 | 0.00 | 0.00 | 0.00 | 69 | |
| 20260905094403 | 62 | 293 | 17.0 | 25.0 | 0.00 | 0.00 | 0.00 | 69 | |
| 20260905094303 | 63 | 293 | 17.0 | 25.0 | 0.00 | 0.00 | 0.00 | 69 | |
| 20260905094224 | 63 | 294 | 17.0 | 25.0 | 0.00 | 0.00 | 0.00 | 69 | |
| 20260905094103 | 62 | 295 | 18.0 | 25.0 | 0.00 | 0.00 | 0.00 | 71 | |
| 20260905094003 | 62 | 295 | 18.0 | 25.0 | 0.00 | 0.00 | 0.00 | 70 | |
| 20260905093903 | 62 | 293 | 18.0 | 25.0 | 0.00 | 0.00 | 0.00 | 70 | |
| 20260905093803 | 62 | 292 | 18.0 | 25.0 | 0.00 | 0.00 | 0.00 | 70 | |
| 20260905093703 | 62 | 293 | 18.0 | 25.0 | 0.00 | 0.00 | 0.00 | 70 | |
| 20260905093603 | 62 | 295 | 18.0 | 25.0 | 0.00 | 0.00 | 0.00 | 70 | |
| 20260905093503 | 62 | 296 | 18.0 | 25.0 | 0.00 | 0.00 | 0.00 | 70 | |
| 20260905093424 | 62 | 296 | 18.0 | 25.0 | 0.00 | 0.00 | 0.00 | 70 | |
| 20260905093303 | 62 | 295 | 18.0 | 25.0 | 0.00 | 0.00 | 0.00 | 70 | |
| 20260905093203 | 62 | 293 | 18.0 | 25.0 | 0.00 | 0.00 | 0.00 | 70 | |
| 20260905093103 | 62 | 293 | 18.0 | 25.0 | 0.00 | 0.00 | 0.00 | 69 | |
| 20260905093004 | 62 | 293 | 17.0 | 25.0 | 0.00 | 0.00 | 0.00 | 70 | |
| 20260905092903 | 62 | 293 | 17.0 | 25.0 | 0.00 | 0.00 | 0.00 | 70 | |
| 20260905092803 | 62 | 293 | 17.0 | 25.0 | 0.00 | 0.00 | 0.00 | 71 | |
| 20260905092704 | 62 | 292 | 16.0 | 25.0 | 0.00 | 0.00 | 0.00 | 71 | |
| 20260905092604 | 62 | 290 | 16.0 | 21.0 | 0.00 | 0.00 | 0.00 | 71 | |
| 20260905092503 | 62 | 290 | 16.0 | 21.0 | 0.00 | 0.00 | 0.00 | 70 | |
| 20260905092403 | 62 | 290 | 16.0 | 21.0 | 0.00 | 0.00 | 0.00 | 72 | |
| 20260905092306 | 62 | 290 | 15.0 | 21.0 | 0.00 | 0.00 | 0.00 | 71 | |
| 20260905092203 | 62 | 289 | 15.0 | 21.0 | 0.00 | 0.00 | 0.00 | 73 | |
| 20260905092104 | 62 | 288 | 15.0 | 21.0 | 0.00 | 0.00 | 0.00 | 72 | |
| 20260905092024 | 62 | 287 | 15.0 | 21.0 | 0.00 | 0.00 | 0.00 | 72 | |
| 20260905091903 | 62 | 287 | 15.0 | 21.0 | 0.00 | 0.00 | 0.00 | 72 | |
| 20260905091803 | 62 | 286 | 15.0 | 21.0 | 0.00 | 0.00 | 0.00 | 73 | |
| 20260905091704 | 62 | 287 | 15.0 | 21.0 | 0.00 | 0.00 | 0.00 | 73 | |
| 20260905091603 | 62 | 285 | 14.0 | 20.0 | 0.00 | 0.00 | 0.00 | 73 | |
| 20260905091503 | 62 | 284 | 14.0 | 20.0 | 0.00 | 0.00 | 0.00 | 73 | |
| 20260905091424 | 62 | 285 | 14.0 | 20.0 | 0.00 | 0.00 | 0.00 | 73 | |
| 20260905091303 | 62 | 287 | 15.0 | 20.0 | 0.00 | 0.00 | 0.00 | 73 | |
| 20260905091203 | 62 | 287 | 15.0 | 20.0 | 0.00 | 0.00 | 0.00 | 73 | |
| 20260905091103 | 62 | 286 | 15.0 | 20.0 | 0.00 | 0.00 | 0.00 | 73 | |
| 20260905091003 | 61 | 289 | 14.0 | 20.0 | 0.00 | 0.00 | 0.00 | 73 | |
| 20260905090903 | 61 | 288 | 14.0 | 20.0 | 0.00 | 0.00 | 0.00 | 72 | |
| 20260905090804 | 62 | 290 | 14.0 | 20.0 | 0.00 | 0.00 | 0.00 | 72 | |
| 20260905090703 | 62 | 290 | 14.0 | 20.0 | 0.00 | 0.00 | 0.00 | 73 | |
| 20260905090603 | 62 | 291 | 14.0 | 20.0 | 0.00 | 0.00 | 0.00 | 74 | |
| 20260905090503 | 62 | 290 | 15.0 | 23.0 | 0.00 | 0.00 | 0.00 | 74 | |
| 20260905090403 | 62 | 289 | 15.0 | 23.0 | 0.00 | 0.00 | 0.00 | 73 | |
| 20260905090303 | 61 | 289 | 15.0 | 23.0 | 0.00 | 0.00 | 0.00 | 73 | |
| 20260905090224 | 61 | 289 | 15.0 | 23.0 | 0.00 | 0.00 | 0.00 | 73 | |
| 20260905090103 | 61 | 290 | 15.0 | 25.0 | 0.00 | 0.00 | 0.00 | 74 | |
| 20260905090003 | 61 | 288 | 15.0 | 25.0 | 0.00 | 0.00 | 0.00 | 73 | |
| 20260905085924 | 61 | 288 | 15.0 | 25.0 | 0.00 | 0.00 | 0.00 | 73 | |
| 20260905085803 | 61 | 286 | 14.0 | 25.0 | 0.00 | 0.00 | 0.00 | 74 | |
| 20260905085703 | 61 | 285 | 14.0 | 25.0 | 0.00 | 0.00 | 0.00 | 74 | |
| 20260905085603 | 61 | 285 | 14.0 | 25.0 | 0.00 | 0.00 | 0.00 | 73 | |
| 20260905085503 | 61 | 286 | 15.0 | 25.0 | 0.00 | 0.00 | 0.00 | 73 | |
| 20260905085403 | 61 | 286 | 14.0 | 25.0 | 0.00 | 0.00 | 0.00 | 74 | |
| 20260905085305 | 61 | 285 | 14.0 | 25.0 | 0.00 | 0.00 | 0.00 | 74 | |
| 20260905085203 | 61 | 285 | 14.0 | 25.0 | 0.00 | 0.00 | 0.00 | 75 | |
| 20260905085103 | 61 | 283 | 14.0 | 25.0 | 0.00 | 0.00 | 0.00 | 75 | |
| 20260905085003 | 61 | 284 | 14.0 | 25.0 | 0.00 | 0.00 | 0.00 | 74 | |
| 20260905084903 | 61 | 285 | 15.0 | 25.0 | 0.00 | 0.00 | 0.00 | 74 | |
| 20260905084803 | 61 | 286 | 16.0 | 25.0 | 0.00 | 0.00 | 0.00 | 74 | |
| 20260905084703 | 61 | 286 | 16.0 | 25.0 | 0.00 | 0.00 | 0.00 | 73 | |
| 20260905084624 | 61 | 286 | 16.0 | 25.0 | 0.00 | 0.00 | 0.00 | 73 | |
| 20260905084525 | 61 | 285 | 16.0 | 25.0 | 0.00 | 0.00 | 0.00 | 73 | |
| 20260905084403 | 61 | 284 | 16.0 | 25.0 | 0.00 | 0.00 | 0.00 | 74 | |
| 20260905084303 | 61 | 284 | 16.0 | 25.0 | 0.00 | 0.00 | 0.00 | 74 | |
| 20260905084203 | 61 | 285 | 17.0 | 25.0 | 0.00 | 0.00 | 0.00 | 75 | |
| 20260905084103 | 60 | 286 | 17.0 | 25.0 | 0.00 | 0.00 | 0.00 | 74 | |
| 20260905084003 | 60 | 285 | 17.0 | 25.0 | 0.00 | 0.00 | 0.00 | 74 | |
| 20260905083903 | 60 | 284 | 16.0 | 25.0 | 0.00 | 0.00 | 0.00 | 73 | |
| 20260905083824 | 60 | 284 | 16.0 | 25.0 | 0.00 | 0.00 | 0.00 | 73 | |
| 20260905083703 | 60 | 284 | 16.0 | 25.0 | 0.00 | 0.00 | 0.00 | 74 | |
| 20260905083603 | 60 | 284 | 16.0 | 25.0 | 0.00 | 0.00 | 0.00 | 74 | |
| 20260905083503 | 60 | 285 | 15.0 | 25.0 | 0.00 | 0.00 | 0.00 | 74 | |
| 20260905083403 | 60 | 286 | 15.0 | 24.0 | 0.00 | 0.00 | 0.00 | 74 | |
| 20260905083303 | 60 | 286 | 15.0 | 28.0 | 0.00 | 0.00 | 0.00 | 74 | |
| 20260905083203 | 60 | 284 | 15.0 | 28.0 | 0.00 | 0.00 | 0.00 | 74 | |
| 20260905083103 | 60 | 283 | 14.0 | 28.0 | 0.00 | 0.00 | 0.00 | 75 | |
| 20260905083024 | 60 | 283 | 14.0 | 28.0 | 0.00 | 0.00 | 0.00 | 75 | |
| 20260905082903 | 60 | 282 | 14.0 | 28.0 | 0.00 | 0.00 | 0.00 | 74 | |
| 20260905082824 | 60 | 282 | 14.0 | 28.0 | 0.00 | 0.00 | 0.00 | 74 | |
| 20260905082703 | 60 | 283 | 13.0 | 28.0 | 0.00 | 0.00 | 0.00 | 75 | |
| 20260905082624 | 60 | 283 | 13.0 | 28.0 | 0.00 | 0.00 | 0.00 | 75 | |
| 20260905082524 | 60 | 284 | 13.0 | 28.0 | 0.00 | 0.00 | 0.00 | 74 | |
| 20260905082424 | 60 | 284 | 13.0 | 28.0 | 0.00 | 0.00 | 0.00 | 75 | |
| 20260905082306 | 60 | 283 | 12.0 | 20.0 | 0.00 | 0.00 | 0.00 | 76 | |
| 20260905082203 | 60 | 284 | 12.0 | 19.0 | 0.00 | 0.00 | 0.00 | 77 | |
| 20260905082103 | 60 | 284 | 12.0 | 19.0 | 0.00 | 0.00 | 0.00 | 77 | |
| 20260905082003 | 60 | 283 | 12.0 | 19.0 | 0.00 | 0.00 | 0.00 | 77 | |
| 20260905081903 | 60 | 282 | 12.0 | 19.0 | 0.00 | 0.00 | 0.00 | 78 | |
| 20260905081803 | 60 | 282 | 12.0 | 19.0 | 0.00 | 0.00 | 0.00 | 77 | |
| 20260905081703 | 60 | 280 | 12.0 | 19.0 | 0.00 | 0.00 | 0.00 | 77 | |
| 20260905081603 | 60 | 278 | 12.0 | 19.0 | 0.00 | 0.00 | 0.00 | 77 | |
| 20260905081503 | 60 | 278 | 12.0 | 19.0 | 0.00 | 0.00 | 0.00 | 77 | |
| 20260905081403 | 60 | 277 | 11.0 | 19.0 | 0.00 | 0.00 | 0.00 | 77 | |
| 20260905081303 | 60 | 277 | 12.0 | 19.0 | 0.00 | 0.00 | 0.00 | 78 | |
| 20260905081203 | 60 | 279 | 12.0 | 19.0 | 0.00 | 0.00 | 0.00 | 78 | |
| 20260905081103 | 60 | 280 | 12.0 | 18.0 | 0.00 | 0.00 | 0.00 | 78 | |
| 20260905081003 | 60 | 281 | 12.0 | 18.0 | 0.00 | 0.00 | 0.00 | 79 | |
| 20260905080904 | 60 | 282 | 12.0 | 18.0 | 0.00 | 0.00 | 0.00 | 79 | |
| 20260905080803 | 59 | 283 | 12.0 | 18.0 | 0.00 | 0.00 | 0.00 | 78 | |
| 20260905080724 | 59 | 283 | 12.0 | 18.0 | 0.00 | 0.00 | 0.00 | 78 | |
| 20260905080603 | 59 | 280 | 12.0 | 18.0 | 0.00 | 0.00 | 0.00 | 78 | |
| 20260905080503 | 59 | 279 | 12.0 | 18.0 | 0.00 | 0.00 | 0.00 | 79 | |
| 20260905080403 | 59 | 279 | 12.0 | 18.0 | 0.00 | 0.00 | 0.00 | 79 | |
| 20260905080303 | 59 | 279 | 12.0 | 22.0 | 0.00 | 0.00 | 0.00 | 79 | |
| 20260905080203 | 59 | 279 | 12.0 | 22.0 | 0.00 | 0.00 | 0.00 | 79 | |
| 20260905080003 | 59 | 278 | 13.0 | 22.0 | 0.00 | 0.00 | 0.00 | 79 | |
| 20260905075924 | 59 | 277 | 13.0 | 22.0 | 0.00 | 0.00 | 0.00 | 79 | |
| 20260905075824 | 59 | 276 | 13.0 | 22.0 | 0.00 | 0.00 | 0.00 | 79 | |
| 20260905075703 | 59 | 276 | 13.0 | 22.0 | 0.00 | 0.00 | 0.00 | 79 | |
| 20260905075603 | 59 | 278 | 13.0 | 22.0 | 0.00 | 0.00 | 0.00 | 79 | |
| 20260905075524 | 59 | 279 | 13.0 | 22.0 | 0.00 | 0.00 | 0.00 | 79 | |
| 20260905075403 | 59 | 280 | 13.0 | 22.0 | 0.00 | 0.00 | 0.00 | 79 | |
| 20260905075306 | 59 | 280 | 12.0 | 22.0 | 0.00 | 0.00 | 0.00 | 80 | |
| 20260905075203 | 59 | 278 | 12.0 | 19.0 | 0.00 | 0.00 | 0.00 | 80 | |
| 20260905075124 | 59 | 279 | 12.0 | 19.0 | 0.00 | 0.00 | 0.00 | 80 | |
| 20260905075003 | 59 | 279 | 12.0 | 19.0 | 0.00 | 0.00 | 0.00 | 80 | |
| 20260905074903 | 59 | 279 | 11.0 | 19.0 | 0.00 | 0.00 | 0.00 | 80 | |
| 20260905074824 | 59 | 281 | 11.0 | 19.0 | 0.00 | 0.00 | 0.00 | 80 | |
| 20260905074704 | 59 | 280 | 11.0 | 16.0 | 0.00 | 0.00 | 0.00 | 80 | |
| 20260905074603 | 59 | 281 | 11.0 | 16.0 | 0.00 | 0.00 | 0.00 | 80 | |
| 20260905074503 | 59 | 281 | 10.0 | 16.0 | 0.00 | 0.00 | 0.00 | 80 | |
| 20260905074404 | 59 | 282 | 10.0 | 16.0 | 0.00 | 0.00 | 0.00 | 80 | |
| 20260905074303 | 59 | 283 | 10.0 | 16.0 | 0.00 | 0.00 | 0.00 | 80 | |
| 20260905074203 | 58 | 285 | 10.0 | 16.0 | 0.00 | 0.00 | 0.00 | 81 | |
| 20260905074103 | 58 | 286 | 10.0 | 16.0 | 0.00 | 0.00 | 0.00 | 81 | |
| 20260905074003 | 58 | 286 | 9.0 | 16.0 | 0.00 | 0.00 | 0.00 | 81 | |
| 20260905073903 | 58 | 287 | 9.0 | 14.0 | 0.00 | 0.00 | 0.00 | 81 | |
| 20260905073803 | 58 | 288 | 9.0 | 13.0 | 0.00 | 0.00 | 0.00 | 81 | |
| 20260905073703 | 58 | 286 | 9.0 | 13.0 | 0.00 | 0.00 | 0.00 | 81 | |
| 20260905073603 | 58 | 286 | 9.0 | 13.0 | 0.00 | 0.00 | 0.00 | 81 | |
| 20260905073503 | 58 | 286 | 9.0 | 13.0 | 0.00 | 0.00 | 0.00 | 82 | |
| 20260905073403 | 58 | 285 | 9.0 | 13.0 | 0.00 | 0.00 | 0.00 | 82 | |
| 20260905073303 | 58 | 286 | 10.0 | 13.0 | 0.00 | 0.00 | 0.00 | 81 | |
| 20260905073203 | 58 | 285 | 10.0 | 14.0 | 0.00 | 0.00 | 0.00 | 81 | |
| 20260905073103 | 58 | 285 | 10.0 | 16.0 | 0.00 | 0.00 | 0.00 | 81 | |
| 20260905073024 | 58 | 284 | 10.0 | 16.0 | 0.00 | 0.00 | 0.00 | 81 | |
| 20260905072903 | 58 | 284 | 10.0 | 16.0 | 0.00 | 0.00 | 0.00 | 81 | |
| 20260905072803 | 58 | 282 | 10.0 | 16.0 | 0.00 | 0.00 | 0.00 | 81 | |
| 20260905072703 | 58 | 282 | 10.0 | 16.0 | 0.00 | 0.00 | 0.00 | 82 | |
| 20260905072603 | 58 | 282 | 11.0 | 16.0 | 0.00 | 0.00 | 0.00 | 82 | |
| 20260905072503 | 58 | 282 | 11.0 | 16.0 | 0.00 | 0.00 | 0.00 | 82 | |
| 20260905072424 | 58 | 280 | 11.0 | 16.0 | 0.00 | 0.00 | 0.00 | 82 | |
| 20260905072305 | 58 | 279 | 11.0 | 16.0 | 0.00 | 0.00 | 0.00 | 81 | |
| 20260905072203 | 58 | 278 | 11.0 | 16.0 | 0.00 | 0.00 | 0.00 | 81 | |
| 20260905072103 | 58 | 278 | 10.0 | 16.0 | 0.00 | 0.00 | 0.00 | 81 | |
| 20260905072024 | 58 | 276 | 10.0 | 16.0 | 0.00 | 0.00 | 0.00 | 81 | |
| 20260905071903 | 58 | 277 | 11.0 | 16.0 | 0.00 | 0.00 | 0.00 | 81 | |
| 20260905071803 | 58 | 276 | 11.0 | 16.0 | 0.00 | 0.00 | 0.00 | 81 | |
| 20260905071703 | 58 | 277 | 11.0 | 16.0 | 0.00 | 0.00 | 0.00 | 81 | |
| 20260905071604 | 58 | 276 | 11.0 | 16.0 | 0.00 | 0.00 | 0.00 | 81 | |
| 20260905071524 | 58 | 274 | 11.0 | 19.0 | 0.00 | 0.00 | 0.00 | 81 | |
| 20260905071424 | 58 | 276 | 11.0 | 19.0 | 0.00 | 0.00 | 0.00 | 82 | |
| 20260905071303 | 58 | 272 | 12.0 | 20.0 | 0.00 | 0.00 | 0.00 | 81 | |
| 20260905071203 | 58 | 271 | 12.0 | 20.0 | 0.00 | 0.00 | 0.00 | 81 | |
| 20260905071103 | 58 | 269 | 12.0 | 20.0 | 0.00 | 0.00 | 0.00 | 81 | |
| 20260905071003 | 58 | 268 | 12.0 | 20.0 | 0.00 | 0.00 | 0.00 | 81 | |
| 20260905070903 | 58 | 268 | 12.0 | 20.0 | 0.00 | 0.00 | 0.00 | 81 | |
| 20260905070803 | 58 | 267 | 12.0 | 20.0 | 0.00 | 0.00 | 0.00 | 81 | |
| 20260905070703 | 58 | 266 | 12.0 | 20.0 | 0.00 | 0.00 | 0.00 | 81 | |
| 20260905070624 | 58 | 266 | 12.0 | 20.0 | 0.00 | 0.00 | 0.00 | 81 | |
| 20260905070503 | 58 | 266 | 12.0 | 20.0 | 0.00 | 0.00 | 0.00 | 81 | |
| 20260905070403 | 58 | 265 | 12.0 | 19.0 | 0.00 | 0.00 | 0.00 | 81 | |
| 20260905070303 | 58 | 267 | 12.0 | 19.0 | 0.00 | 0.00 | 0.00 | 81 | |
| 20260905070203 | 58 | 267 | 12.0 | 19.0 | 0.00 | 0.00 | 0.00 | 81 | |
| 20260905070003 | 58 | 268 | 12.0 | 19.0 | 0.00 | 0.00 | 0.00 | 81 | |
| 20260905065903 | 58 | 267 | 12.0 | 19.0 | 0.00 | 0.00 | 0.00 | 81 | |
| 20260905065803 | 58 | 267 | 11.0 | 19.0 | 0.00 | 0.00 | 0.00 | 81 | |
| 20260905065703 | 58 | 267 | 11.0 | 16.0 | 0.00 | 0.00 | 0.00 | 81 | |
| 20260905065603 | 58 | 267 | 11.0 | 16.0 | 0.00 | 0.00 | 0.00 | 82 | |
| 20260905065503 | 58 | 266 | 11.0 | 15.0 | 0.00 | 0.00 | 0.00 | 82 | |
| 20260905065403 | 58 | 267 | 11.0 | 15.0 | 0.00 | 0.00 | 0.00 | 82 | |
| 20260905065306 | 58 | 267 | 10.0 | 15.0 | 0.00 | 0.00 | 0.00 | 82 | |
| 20260905065203 | 58 | 267 | 10.0 | 15.0 | 0.00 | 0.00 | 0.00 | 82 | |
| 20260905065124 | 58 | 267 | 10.0 | 15.0 | 0.00 | 0.00 | 0.00 | 82 | |
| 20260905065003 | 57 | 266 | 10.0 | 15.0 | 0.00 | 0.00 | 0.00 | 82 | |
| 20260905064903 | 57 | 265 | 9.0 | 15.0 | 0.00 | 0.00 | 0.00 | 83 | |
| 20260905064803 | 57 | 266 | 9.0 | 14.0 | 0.00 | 0.00 | 0.00 | 83 | |
| 20260905064703 | 57 | 266 | 8.0 | 14.0 | 0.00 | 0.00 | 0.00 | 82 | |
| 20260905064610 | 57 | 266 | 8.0 | 14.0 | 0.00 | 0.00 | 0.00 | 82 | |
| 20260905064503 | 57 | 265 | 7.0 | 14.0 | 0.00 | 0.00 | 0.00 | 83 | |
| 20260905064403 | 57 | 265 | 7.0 | 13.0 | 0.00 | 0.00 | 0.00 | 83 | |
| 20260905064324 | 57 | 265 | 7.0 | 13.0 | 0.00 | 0.00 | 0.00 | 83 | |
| 20260905064203 | 57 | 263 | 7.0 | 13.0 | 0.00 | 0.00 | 0.00 | 83 | |
| 20260905064103 | 57 | 264 | 7.0 | 11.0 | 0.00 | 0.00 | 0.00 | 84 | |
| 20260905064024 | 57 | 265 | 7.0 | 11.0 | 0.00 | 0.00 | 0.00 | 84 | |
| 20260905063903 | 57 | 267 | 6.0 | 9.0 | 0.00 | 0.00 | 0.00 | 84 | |
| 20260905063824 | 57 | 266 | 6.0 | 9.0 | 0.00 | 0.00 | 0.00 | 84 | |
| 20260905063703 | 57 | 266 | 6.0 | 11.0 | 0.00 | 0.00 | 0.00 | 83 | |
| 20260905063603 | 57 | 265 | 6.0 | 11.0 | 0.00 | 0.00 | 0.00 | 83 | |
| 20260905063503 | 57 | 264 | 6.0 | 11.0 | 0.00 | 0.00 | 0.00 | 83 | |
| 20260905063403 | 57 | 264 | 6.0 | 11.0 | 0.00 | 0.00 | 0.00 | 83 | |
| 20260905063303 | 57 | 261 | 6.0 | 11.0 | 0.00 | 0.00 | 0.00 | 83 | |
| 20260905063203 | 57 | 262 | 6.0 | 11.0 | 0.00 | 0.00 | 0.00 | 83 | |
| 20260905063103 | 57 | 263 | 6.0 | 11.0 | 0.00 | 0.00 | 0.00 | 83 | |
| 20260905063003 | 57 | 262 | 6.0 | 11.0 | 0.00 | 0.00 | 0.00 | 83 | |
| 20260905062924 | 57 | 262 | 6.0 | 11.0 | 0.00 | 0.00 | 0.00 | 83 | |
| 20260905062803 | 57 | 260 | 6.0 | 11.0 | 0.00 | 0.00 | 0.00 | 83 | |
| 20260905062703 | 57 | 258 | 6.0 | 10.0 | 0.00 | 0.00 | 0.00 | 83 | |
| 20260905062603 | 57 | 259 | 6.0 | 13.0 | 0.00 | 0.00 | 0.00 | 83 | |
| 20260905062503 | 57 | 258 | 7.0 | 13.0 | 0.00 | 0.00 | 0.00 | 83 | |
| 20260905062403 | 57 | 257 | 7.0 | 13.0 | 0.00 | 0.00 | 0.00 | 83 | |
| 20260905062305 | 57 | 257 | 7.0 | 13.0 | 0.00 | 0.00 | 0.00 | 83 | |
| 20260905062203 | 56 | 256 | 7.0 | 13.0 | 0.00 | 0.00 | 0.00 | 83 | |
| 20260905062103 | 56 | 256 | 8.0 | 13.0 | 0.00 | 0.00 | 0.00 | 83 | |
| 20260905062003 | 56 | 257 | 8.0 | 13.0 | 0.00 | 0.00 | 0.00 | 83 | |
| 20260905061903 | 56 | 257 | 8.0 | 13.0 | 0.00 | 0.00 | 0.00 | 83 | |
| 20260905061803 | 56 | 257 | 8.0 | 13.0 | 0.00 | 0.00 | 0.00 | 83 | |
| 20260905061703 | 56 | 258 | 8.0 | 13.0 | 0.00 | 0.00 | 0.00 | 82 | |
| 20260905061624 | 56 | 258 | 8.0 | 13.0 | 0.00 | 0.00 | 0.00 | 82 | |
| 20260905061503 | 56 | 259 | 8.0 | 13.0 | 0.00 | 0.00 | 0.00 | 82 | |
| 20260905061403 | 56 | 261 | 8.0 | 13.0 | 0.00 | 0.00 | 0.00 | 82 | |
| 20260905061303 | 56 | 263 | 8.0 | 13.0 | 0.00 | 0.00 | 0.00 | 82 | |
| 20260905061203 | 56 | 265 | 8.0 | 16.0 | 0.00 | 0.00 | 0.00 | 82 | |
| 20260905061103 | 56 | 264 | 9.0 | 16.0 | 0.00 | 0.00 | 0.00 | 82 | |
| 20260905061003 | 56 | 263 | 9.0 | 16.0 | 0.00 | 0.00 | 0.00 | 82 | |
| 20260905060903 | 56 | 262 | 9.0 | 16.0 | 0.00 | 0.00 | 0.00 | 82 | |
| 20260905060803 | 57 | 262 | 9.0 | 16.0 | 0.00 | 0.00 | 0.00 | 82 | |
| 20260905060724 | 57 | 262 | 9.0 | 16.0 | 0.00 | 0.00 | 0.00 | 82 | |
| 20260905060624 | 57 | 263 | 9.0 | 16.0 | 0.00 | 0.00 | 0.00 | 82 | |
| 20260905060503 | 57 | 263 | 10.0 | 16.0 | 0.00 | 0.00 | 0.00 | 82 | |
| 20260905060403 | 57 | 262 | 10.0 | 16.0 | 0.00 | 0.00 | 0.00 | 82 | |
| 20260905060303 | 57 | 261 | 10.0 | 16.0 | 0.00 | 0.00 | 0.00 | 82 | |
| 20260905060203 | 57 | 261 | 9.0 | 15.0 | 0.00 | 0.00 | 0.00 | 82 | |
| 20260905060024 | 57 | 262 | 9.0 | 15.0 | 0.00 | 0.00 | 0.00 | 82 | |
| 20260905055903 | 57 | 262 | 9.0 | 15.0 | 0.00 | 0.00 | 0.00 | 82 | |
| 20260905055803 | 57 | 262 | 9.0 | 15.0 | 0.00 | 0.00 | 0.00 | 82 | |
| 20260905055703 | 57 | 264 | 9.0 | 15.0 | 0.00 | 0.00 | 0.00 | 82 | |
| 20260905055603 | 57 | 264 | 9.0 | 14.0 | 0.00 | 0.00 | 0.00 | 82 | |
| 20260905055524 | 57 | 264 | 9.0 | 15.0 | 0.00 | 0.00 | 0.00 | 82 | |
| 20260905055403 | 57 | 265 | 9.0 | 15.0 | 0.00 | 0.00 | 0.00 | 82 | |
| 20260905055324 | 57 | 265 | 9.0 | 15.0 | 0.00 | 0.00 | 0.00 | 82 | |
| 20260905055203 | 57 | 268 | 9.0 | 15.0 | 0.00 | 0.00 | 0.00 | 82 | |
| 20260905055103 | 57 | 267 | 9.0 | 15.0 | 0.00 | 0.00 | 0.00 | 82 | |
| 20260905055003 | 57 | 267 | 9.0 | 15.0 | 0.00 | 0.00 | 0.00 | 82 | |
| 20260905054903 | 56 | 269 | 9.0 | 15.0 | 0.00 | 0.00 | 0.00 | 82 | |
| 20260905054803 | 56 | 269 | 9.0 | 15.0 | 0.00 | 0.00 | 0.00 | 82 | |
| 20260905054703 | 56 | 269 | 9.0 | 15.0 | 0.00 | 0.00 | 0.00 | 82 | |
| 20260905054603 | 56 | 269 | 8.0 | 15.0 | 0.00 | 0.00 | 0.00 | 82 | |
| 20260905054503 | 56 | 269 | 8.0 | 14.0 | 0.00 | 0.00 | 0.00 | 82 | |
| 20260905054424 | 56 | 269 | 8.0 | 14.0 | 0.00 | 0.00 | 0.00 | 82 | |
| 20260905054303 | 56 | 269 | 8.0 | 14.0 | 0.00 | 0.00 | 0.00 | 83 | |
| 20260905054203 | 56 | 267 | 8.0 | 14.0 | 0.00 | 0.00 | 0.00 | 83 | |
| 20260905054103 | 56 | 268 | 7.0 | 14.0 | 0.00 | 0.00 | 0.00 | 82 | |
| 20260905054003 | 56 | 268 | 7.0 | 14.0 | 0.00 | 0.00 | 0.00 | 83 | |
| 20260905053903 | 56 | 268 | 7.0 | 12.0 | 0.00 | 0.00 | 0.00 | 83 | |
| 20260905053803 | 56 | 268 | 7.0 | 12.0 | 0.00 | 0.00 | 0.00 | 83 | |
| 20260905053703 | 56 | 269 | 7.0 | 12.0 | 0.00 | 0.00 | 0.00 | 82 | |
| 20260905053603 | 56 | 271 | 7.0 | 12.0 | 0.00 | 0.00 | 0.00 | 82 | |
| 20260905053524 | 56 | 271 | 7.0 | 12.0 | 0.00 | 0.00 | 0.00 | 82 | |
| 20260905053403 | 56 | 273 | 7.0 | 12.0 | 0.00 | 0.00 | 0.00 | 82 | |
| 20260905053303 | 56 | 273 | 7.0 | 12.0 | 0.00 | 0.00 | 0.00 | 82 | |
| 20260905053203 | 56 | 273 | 7.0 | 12.0 | 0.00 | 0.00 | 0.00 | 83 | |
| 20260905053103 | 56 | 273 | 7.0 | 12.0 | 0.00 | 0.00 | 0.00 | 83 | |
| 20260905053003 | 56 | 273 | 7.0 | 12.0 | 0.00 | 0.00 | 0.00 | 83 | |
| 20260905052903 | 56 | 272 | 7.0 | 11.0 | 0.00 | 0.00 | 0.00 | 83 | |
| 20260905052803 | 56 | 271 | 7.0 | 11.0 | 0.00 | 0.00 | 0.00 | 83 | |
| 20260905052703 | 56 | 270 | 7.0 | 11.0 | 0.00 | 0.00 | 0.00 | 83 | |
| 20260905052603 | 56 | 269 | 7.0 | 11.0 | 0.00 | 0.00 | 0.00 | 83 | |
| 20260905052524 | 56 | 269 | 7.0 | 11.0 | 0.00 | 0.00 | 0.00 | 83 | |
| 20260905052424 | 56 | 268 | 7.0 | 12.0 | 0.00 | 0.00 | 0.00 | 83 | |
| 20260905052306 | 56 | 268 | 7.0 | 12.0 | 0.00 | 0.00 | 0.00 | 83 | |
| 20260905052224 | 56 | 268 | 7.0 | 12.0 | 0.00 | 0.00 | 0.00 | 83 | |
| 20260905052103 | 56 | 269 | 7.0 | 12.0 | 0.00 | 0.00 | 0.00 | 83 | |
| 20260905052003 | 56 | 270 | 7.0 | 12.0 | 0.00 | 0.00 | 0.00 | 83 | |
| 20260905051924 | 56 | 270 | 7.0 | 12.0 | 0.00 | 0.00 | 0.00 | 83 | |
| 20260905051803 | 56 | 270 | 7.0 | 12.0 | 0.00 | 0.00 | 0.00 | 83 | |
| 20260905051703 | 56 | 270 | 7.0 | 12.0 | 0.00 | 0.00 | 0.00 | 83 | |
| 20260905051603 | 56 | 270 | 7.0 | 12.0 | 0.00 | 0.00 | 0.00 | 83 | |
| 20260905051503 | 56 | 270 | 7.0 | 12.0 | 0.00 | 0.00 | 0.00 | 83 | |
| 20260905051403 | 56 | 271 | 7.0 | 12.0 | 0.00 | 0.00 | 0.00 | 82 | |
| 20260905051303 | 56 | 271 | 7.0 | 12.0 | 0.00 | 0.00 | 0.00 | 83 | |
| 20260905051203 | 56 | 271 | 7.0 | 12.0 | 0.00 | 0.00 | 0.00 | 83 | |
| 20260905051103 | 56 | 272 | 7.0 | 12.0 | 0.00 | 0.00 | 0.00 | 83 | |
| 20260905051003 | 56 | 271 | 7.0 | 11.0 | 0.00 | 0.00 | 0.00 | 83 | |
| 20260905050903 | 56 | 271 | 7.0 | 11.0 | 0.00 | 0.00 | 0.00 | 83 | |
| 20260905050803 | 56 | 272 | 7.0 | 11.0 | 0.00 | 0.00 | 0.00 | 82 | |
| 20260905050724 | 56 | 273 | 7.0 | 11.0 | 0.00 | 0.00 | 0.00 | 82 | |
| 20260905050624 | 56 | 274 | 7.0 | 11.0 | 0.00 | 0.00 | 0.00 | 82 | |
| 20260905050524 | 56 | 274 | 7.0 | 11.0 | 0.00 | 0.00 | 0.00 | 83 | |
| 20260905050403 | 56 | 275 | 8.0 | 13.0 | 0.00 | 0.00 | 0.00 | 83 | |
| 20260905050303 | 56 | 274 | 8.0 | 13.0 | 0.00 | 0.00 | 0.00 | 83 | |
| 20260905050203 | 56 | 274 | 8.0 | 13.0 | 0.00 | 0.00 | 0.00 | 83 | |
| 20260905050103 | 56 | 274 | 8.0 | 13.0 | 0.00 | 0.00 | 0.00 | 83 | |
| 20260905050003 | 56 | 275 | 8.0 | 14.0 | 0.00 | 0.00 | 0.00 | 83 | |
| 20260905045924 | 56 | 275 | 8.0 | 14.0 | 0.00 | 0.00 | 0.00 | 83 | |
| 20260905045803 | 56 | 276 | 8.0 | 14.0 | 0.00 | 0.00 | 0.00 | 83 | |
| 20260905045703 | 56 | 277 | 8.0 | 14.0 | 0.00 | 0.00 | 0.00 | 83 | |
| 20260905045603 | 56 | 277 | 8.0 | 14.0 | 0.00 | 0.00 | 0.00 | 83 | |
| 20260905045503 | 56 | 277 | 8.0 | 14.0 | 0.00 | 0.00 | 0.00 | 83 | |
| 20260905045403 | 56 | 278 | 8.0 | 14.0 | 0.00 | 0.00 | 0.00 | 83 | |
| 20260905045305 | 56 | 278 | 8.0 | 14.0 | 0.00 | 0.00 | 0.00 | 83 | |
| 20260905045203 | 56 | 277 | 8.0 | 14.0 | 0.00 | 0.00 | 0.00 | 83 | |
| 20260905045103 | 56 | 278 | 8.0 | 14.0 | 0.00 | 0.00 | 0.00 | 83 | |
| 20260905045003 | 56 | 279 | 8.0 | 13.0 | 0.00 | 0.00 | 0.00 | 83 | |
| 20260905044903 | 56 | 279 | 8.0 | 13.0 | 0.00 | 0.00 | 0.00 | 83 | |
| 20260905044803 | 56 | 279 | 8.0 | 13.0 | 0.00 | 0.00 | 0.00 | 83 | |
| 20260905044703 | 56 | 279 | 7.0 | 13.0 | 0.00 | 0.00 | 0.00 | 83 | |
| 20260905044624 | 56 | 278 | 7.0 | 13.0 | 0.00 | 0.00 | 0.00 | 83 | |
| 20260905044503 | 56 | 278 | 7.0 | 13.0 | 0.00 | 0.00 | 0.00 | 83 | |
| 20260905044403 | 56 | 277 | 7.0 | 12.0 | 0.00 | 0.00 | 0.00 | 83 | |
| 20260905044324 | 56 | 276 | 7.0 | 12.0 | 0.00 | 0.00 | 0.00 | 83 | |
| 20260905044224 | 56 | 276 | 7.0 | 12.0 | 0.00 | 0.00 | 0.00 | 83 | |
| 20260905044103 | 56 | 274 | 7.0 | 12.0 | 0.00 | 0.00 | 0.00 | 83 | |
| 20260905044003 | 56 | 273 | 7.0 | 12.0 | 0.00 | 0.00 | 0.00 | 83 | |
| 20260905043924 | 56 | 273 | 7.0 | 12.0 | 0.00 | 0.00 | 0.00 | 83 | |
| 20260905043824 | 56 | 272 | 7.0 | 12.0 | 0.00 | 0.00 | 0.00 | 83 | |
| 20260905043703 | 56 | 271 | 6.0 | 10.0 | 0.00 | 0.00 | 0.00 | 84 | |
| 20260905043624 | 56 | 272 | 6.0 | 10.0 | 0.00 | 0.00 | 0.00 | 84 | |
| 20260905043503 | 56 | 271 | 6.0 | 11.0 | 0.00 | 0.00 | 0.00 | 84 | |
| 20260905043403 | 56 | 270 | 6.0 | 11.0 | 0.00 | 0.00 | 0.00 | 83 | |
| 20260905043303 | 56 | 271 | 6.0 | 11.0 | 0.00 | 0.00 | 0.00 | 84 | |
| 20260905043203 | 56 | 271 | 6.0 | 11.0 | 0.00 | 0.00 | 0.00 | 83 | |
| 20260905043125 | 56 | 271 | 6.0 | 11.0 | 0.00 | 0.00 | 0.00 | 83 | |
| 20260905043003 | 56 | 269 | 6.0 | 11.0 | 0.00 | 0.00 | 0.00 | 83 | |
| 20260905042903 | 56 | 267 | 6.0 | 11.0 | 0.00 | 0.00 | 0.00 | 83 | |
| 20260905042803 | 56 | 267 | 7.0 | 11.0 | 0.00 | 0.00 | 0.00 | 83 | |
| 20260905042703 | 56 | 267 | 7.0 | 11.0 | 0.00 | 0.00 | 0.00 | 83 | |
| 20260905042624 | 56 | 266 | 7.0 | 11.0 | 0.00 | 0.00 | 0.00 | 83 | |
| 20260905042503 | 56 | 265 | 7.0 | 11.0 | 0.00 | 0.00 | 0.00 | 83 | |
| 20260905042424 | 56 | 265 | 7.0 | 11.0 | 0.00 | 0.00 | 0.00 | 83 | |
| 20260905042306 | 56 | 265 | 7.0 | 11.0 | 0.00 | 0.00 | 0.00 | 83 | |
| 20260905042203 | 56 | 264 | 7.0 | 11.0 | 0.00 | 0.00 | 0.00 | 83 | |
| 20260905042103 | 56 | 264 | 7.0 | 11.0 | 0.00 | 0.00 | 0.00 | 83 | |
| 20260905042003 | 56 | 264 | 7.0 | 11.0 | 0.00 | 0.00 | 0.00 | 83 | |
| 20260905041903 | 56 | 264 | 7.0 | 11.0 | 0.00 | 0.00 | 0.00 | 83 | |
| 20260905041803 | 56 | 264 | 7.0 | 11.0 | 0.00 | 0.00 | 0.00 | 83 | |
| 20260905041724 | 56 | 262 | 7.0 | 11.0 | 0.00 | 0.00 | 0.00 | 83 | |
| 20260905041603 | 56 | 262 | 7.0 | 11.0 | 0.00 | 0.00 | 0.00 | 83 | |
| 20260905041503 | 56 | 261 | 7.0 | 11.0 | 0.00 | 0.00 | 0.00 | 83 | |
| 20260905041403 | 56 | 259 | 7.0 | 11.0 | 0.00 | 0.00 | 0.00 | 83 | |
| 20260905041303 | 56 | 257 | 7.0 | 11.0 | 0.00 | 0.00 | 0.00 | 83 | |
| 20260905041203 | 56 | 257 | 8.0 | 12.0 | 0.00 | 0.00 | 0.00 | 83 | |
| 20260905041103 | 56 | 256 | 8.0 | 12.0 | 0.00 | 0.00 | 0.00 | 83 | |
| 20260905041024 | 56 | 256 | 8.0 | 12.0 | 0.00 | 0.00 | 0.00 | 83 | |
| 20260905040904 | 56 | 256 | 8.0 | 13.0 | 0.00 | 0.00 | 0.00 | 82 | |
| 20260905040803 | 56 | 255 | 8.0 | 14.0 | 0.00 | 0.00 | 0.00 | 82 | |
| 20260905040703 | 56 | 255 | 9.0 | 14.0 | 0.00 | 0.00 | 0.00 | 82 | |
| 20260905040603 | 56 | 256 | 9.0 | 14.0 | 0.00 | 0.00 | 0.00 | 83 | |
| 20260905040503 | 56 | 257 | 9.0 | 14.0 | 0.00 | 0.00 | 0.00 | 83 | |
| 20260905040403 | 56 | 259 | 9.0 | 15.0 | 0.00 | 0.00 | 0.00 | 82 | |
| 20260905040303 | 56 | 260 | 10.0 | 15.0 | 0.00 | 0.00 | 0.00 | 82 | |
| 20260905040203 | 56 | 260 | 10.0 | 16.0 | 0.00 | 0.00 | 0.00 | 82 | |
| 20260905040003 | 56 | 262 | 10.0 | 16.0 | 0.00 | 0.00 | 0.00 | 82 | |
| 20260905035903 | 56 | 261 | 9.0 | 16.0 | 0.00 | 0.00 | 0.00 | 82 | |
| 20260905035803 | 56 | 262 | 9.0 | 16.0 | 0.00 | 0.00 | 0.00 | 82 | |
| 20260905035703 | 56 | 263 | 9.0 | 16.0 | 0.00 | 0.00 | 0.00 | 83 | |
| 20260905035604 | 56 | 264 | 9.0 | 16.0 | 0.00 | 0.00 | 0.00 | 83 | |
| 20260905035524 | 56 | 265 | 9.0 | 16.0 | 0.00 | 0.00 | 0.00 | 83 | |
| 20260905035403 | 56 | 266 | 9.0 | 16.0 | 0.00 | 0.00 | 0.00 | 83 | |
| 20260905035306 | 56 | 266 | 8.0 | 16.0 | 0.00 | 0.00 | 0.00 | 83 | |
| 20260905035224 | 56 | 268 | 8.0 | 14.0 | 0.00 | 0.00 | 0.00 | 83 | |
| 20260905035103 | 56 | 268 | 8.0 | 13.0 | 0.00 | 0.00 | 0.00 | 83 | |
| 20260905035003 | 56 | 269 | 8.0 | 13.0 | 0.00 | 0.00 | 0.00 | 83 | |
| 20260905034924 | 56 | 270 | 8.0 | 13.0 | 0.00 | 0.01 | 0.00 | 83 | |
| 20260905034824 | 56 | 271 | 8.0 | 13.0 | 0.00 | 0.01 | 0.00 | 83 | |
| 20260905034703 | 56 | 271 | 8.0 | 13.0 | 0.00 | 0.01 | 0.00 | 83 | |
| 20260905034624 | 56 | 271 | 8.0 | 13.0 | 0.00 | 0.01 | 0.00 | 83 | |
| 20260905034503 | 56 | 271 | 7.0 | 13.0 | 0.00 | 0.01 | 0.00 | 83 | |
| 20260905034403 | 56 | 270 | 7.0 | 13.0 | 0.00 | 0.01 | 0.00 | 83 | |
| 20260905034303 | 57 | 270 | 7.0 | 13.0 | 0.00 | 0.01 | 0.00 | 83 | |
| 20260905034203 | 57 | 268 | 7.0 | 13.0 | 0.00 | 0.01 | 0.00 | 83 | |
| 20260905034124 | 57 | 268 | 7.0 | 13.0 | 0.00 | 0.01 | 0.00 | 83 | |
| 20260905034003 | 57 | 266 | 7.0 | 13.0 | 0.00 | 0.01 | 0.00 | 83 | |
| 20260905033903 | 57 | 265 | 7.0 | 13.0 | 0.00 | 0.01 | 0.00 | 83 | |
| 20260905033803 | 57 | 265 | 7.0 | 13.0 | 0.00 | 0.01 | 0.00 | 82 | |
| 20260905033703 | 57 | 264 | 8.0 | 13.0 | 0.00 | 0.01 | 0.00 | 82 | |
| 20260905033603 | 57 | 263 | 8.0 | 14.0 | 0.00 | 0.01 | 0.00 | 82 | |
| 20260905033503 | 57 | 261 | 8.0 | 14.0 | 0.00 | 0.01 | 0.00 | 82 | |
| 20260905033424 | 57 | 260 | 8.0 | 14.0 | 0.00 | 0.01 | 0.00 | 82 | |
| 20260905033303 | 57 | 260 | 8.0 | 14.0 | 0.00 | 0.01 | 0.00 | 82 | |
| 20260905033203 | 57 | 260 | 8.0 | 14.0 | 0.00 | 0.01 | 0.00 | 82 | |
| 20260905033103 | 57 | 261 | 9.0 | 14.0 | 0.00 | 0.01 | 0.00 | 82 | |
| 20260905033003 | 57 | 261 | 9.0 | 14.0 | 0.00 | 0.01 | 0.00 | 82 | |
| 20260905032903 | 57 | 262 | 9.0 | 14.0 | 0.00 | 0.01 | 0.00 | 83 | |
| 20260905032824 | 57 | 262 | 9.0 | 14.0 | 0.00 | 0.01 | 0.00 | 83 | |
| 20260905032703 | 57 | 262 | 10.0 | 19.0 | 0.00 | 0.01 | 0.00 | 83 | |
| 20260905032624 | 57 | 262 | 10.0 | 19.0 | 0.00 | 0.01 | 0.00 | 83 | |
| 20260905032503 | 57 | 263 | 10.0 | 19.0 | 0.00 | 0.01 | 0.00 | 83 | |
| 20260905032403 | 57 | 264 | 10.0 | 19.0 | 0.00 | 0.01 | 0.00 | 83 | |
| 20260905032306 | 57 | 265 | 10.0 | 19.0 | 0.00 | 0.01 | 0.00 | 83 | |
| 20260905032203 | 57 | 264 | 10.0 | 19.0 | 0.00 | 0.01 | 0.00 | 83 | |
| 20260905032104 | 57 | 263 | 10.0 | 19.0 | 0.00 | 0.01 | 0.00 | 83 | |
| 20260905032003 | 57 | 263 | 10.0 | 19.0 | 0.00 | 0.01 | 0.00 | 83 | |
| 20260905031903 | 57 | 263 | 10.0 | 19.0 | 0.00 | 0.01 | 0.00 | 83 | |
| 20260905031824 | 57 | 261 | 10.0 | 19.0 | 0.00 | 0.01 | 0.00 | 83 | |
| 20260905031703 | 57 | 261 | 9.0 | 19.0 | 0.00 | 0.01 | 0.00 | 84 | |
| 20260905031603 | 57 | 262 | 9.0 | 19.0 | 0.00 | 0.01 | 0.00 | 84 | |
| 20260905031503 | 57 | 264 | 9.0 | 15.0 | 0.00 | 0.01 | 0.00 | 84 | |
| 20260905031403 | 57 | 265 | 9.0 | 15.0 | 0.00 | 0.01 | 0.00 | 84 | |
| 20260905031324 | 57 | 265 | 9.0 | 15.0 | 0.00 | 0.01 | 0.00 | 84 | |
| 20260905031224 | 57 | 266 | 9.0 | 15.0 | 0.00 | 0.01 | 0.00 | 84 | |
| 20260905031103 | 57 | 267 | 9.0 | 15.0 | 0.00 | 0.02 | 0.00 | 84 | |
| 20260905031003 | 57 | 268 | 9.0 | 15.0 | 0.00 | 0.02 | 0.00 | 83 | |
| 20260905030924 | 57 | 268 | 9.0 | 14.0 | 0.00 | 0.02 | 0.00 | 83 | |
| 20260905030803 | 57 | 270 | 9.0 | 14.0 | 0.00 | 0.02 | 0.00 | 83 | |
| 20260905030703 | 57 | 270 | 9.0 | 14.0 | 0.00 | 0.02 | 0.00 | 83 | |
| 20260905030603 | 57 | 270 | 9.0 | 14.0 | 0.00 | 0.02 | 0.00 | 83 | |
| 20260905030503 | 57 | 271 | 9.0 | 14.0 | 0.00 | 0.02 | 0.00 | 83 | |
| 20260905030403 | 57 | 270 | 9.0 | 14.0 | 0.00 | 0.02 | 0.00 | 83 | |
| 20260905030303 | 57 | 270 | 9.0 | 14.0 | 0.00 | 0.02 | 0.00 | 83 | |
| 20260905030203 | 57 | 272 | 9.0 | 14.0 | 0.00 | 0.02 | 0.00 | 83 | |
| 20260905030003 | 57 | 273 | 8.0 | 14.0 | 0.00 | 0.02 | 0.00 | 82 | |
| 20260905025903 | 57 | 274 | 9.0 | 14.0 | 0.00 | 0.02 | 0.00 | 83 | |
| 20260905025824 | 57 | 275 | 9.0 | 14.0 | 0.00 | 0.02 | 0.00 | 83 | |
| 20260905025703 | 57 | 276 | 9.0 | 14.0 | 0.00 | 0.02 | 0.00 | 82 | |
| 20260905025603 | 57 | 276 | 9.0 | 14.0 | 0.00 | 0.02 | 0.00 | 82 | |
| 20260905025503 | 57 | 277 | 9.0 | 14.0 | 0.00 | 0.02 | 0.00 | 82 | |
| 20260905025403 | 57 | 276 | 10.0 | 14.0 | 0.00 | 0.02 | 0.00 | 82 | |
| 20260905025306 | 57 | 276 | 10.0 | 18.0 | 0.00 | 0.02 | 0.00 | 82 | |
| 20260905025203 | 57 | 276 | 10.0 | 18.0 | 0.00 | 0.02 | 0.00 | 82 | |
| 20260905025103 | 57 | 275 | 10.0 | 18.0 | 0.00 | 0.03 | 0.00 | 82 | |
| 20260905025003 | 57 | 276 | 10.0 | 18.0 | 0.00 | 0.03 | 0.00 | 82 | |
| 20260905024924 | 57 | 276 | 10.0 | 18.0 | 0.00 | 0.03 | 0.00 | 82 | |
| 20260905024803 | 57 | 275 | 10.0 | 18.0 | 0.00 | 0.03 | 0.00 | 82 | |
| 20260905024703 | 57 | 275 | 9.0 | 18.0 | 0.00 | 0.04 | 0.00 | 82 | |
| 20260905024603 | 57 | 275 | 9.0 | 18.0 | 0.00 | 0.04 | 0.00 | 82 | |
| 20260905024503 | 57 | 275 | 9.0 | 18.0 | 0.00 | 0.04 | 0.00 | 82 | |
| 20260905024403 | 57 | 275 | 9.0 | 18.0 | 0.00 | 0.04 | 0.00 | 82 | |
| 20260905024303 | 57 | 275 | 9.0 | 14.0 | 0.00 | 0.04 | 0.00 | 82 | |
| 20260905024203 | 57 | 275 | 9.0 | 14.0 | 0.00 | 0.04 | 0.00 | 82 | |
| 20260905024103 | 57 | 275 | 9.0 | 14.0 | 0.00 | 0.04 | 0.00 | 82 | |
| 20260905024003 | 57 | 274 | 9.0 | 13.0 | 0.00 | 0.05 | 0.00 | 82 | |
| 20260905023903 | 57 | 274 | 9.0 | 14.0 | 0.00 | 0.05 | 0.00 | 82 | |
| 20260905023803 | 57 | 273 | 9.0 | 14.0 | 0.00 | 0.05 | 0.00 | 82 | |
| 20260905023703 | 57 | 272 | 9.0 | 14.0 | 0.00 | 0.05 | 0.00 | 82 | |
| 20260905023603 | 57 | 272 | 9.0 | 14.0 | 0.00 | 0.05 | 0.00 | 82 | |
| 20260905023503 | 57 | 271 | 9.0 | 14.0 | 0.00 | 0.05 | 0.00 | 82 | |
| 20260905023403 | 57 | 271 | 9.0 | 14.0 | 0.00 | 0.05 | 0.00 | 82 | |
| 20260905023324 | 57 | 271 | 9.0 | 14.0 | 0.00 | 0.05 | 0.00 | 82 | |
| 20260905023203 | 57 | 271 | 9.0 | 14.0 | 0.00 | 0.05 | 0.00 | 82 | |
| 20260905023103 | 57 | 272 | 9.0 | 14.0 | 0.00 | 0.05 | 0.00 | 82 | |
| 20260905023003 | 57 | 272 | 9.0 | 14.0 | 0.00 | 0.05 | 0.00 | 82 | |
| 20260905022925 | 57 | 272 | 9.0 | 14.0 | 0.00 | 0.05 | 0.00 | 82 | |
| 20260905022824 | 57 | 273 | 9.0 | 14.0 | 0.00 | 0.05 | 0.00 | 82 | |
| 20260905022703 | 57 | 276 | 9.0 | 14.0 | 0.00 | 0.05 | 0.00 | 82 | |
| 20260905022603 | 57 | 276 | 9.0 | 14.0 | 0.00 | 0.05 | 0.00 | 82 | |
| 20260905022503 | 57 | 276 | 9.0 | 14.0 | 0.00 | 0.05 | 0.00 | 82 | |
| 20260905022403 | 57 | 275 | 9.0 | 14.0 | 0.00 | 0.06 | 0.00 | 82 | |
| 20260905022324 | 57 | 274 | 9.0 | 14.0 | 0.00 | 0.06 | 0.00 | 82 | |
| 20260905022203 | 57 | 274 | 9.0 | 13.0 | 0.00 | 0.06 | 0.00 | 82 | |
| 20260905022103 | 57 | 274 | 9.0 | 16.0 | 0.00 | 0.06 | 0.00 | 82 | |
| 20260905022003 | 57 | 274 | 9.0 | 16.0 | 0.00 | 0.06 | 0.00 | 82 | |
| 20260905021903 | 57 | 273 | 9.0 | 16.0 | 0.00 | 0.06 | 0.00 | 82 | |
| 20260905021803 | 57 | 272 | 9.0 | 16.0 | 0.00 | 0.06 | 0.00 | 82 | |
| 20260905021724 | 57 | 271 | 9.0 | 16.0 | 0.00 | 0.07 | 0.00 | 82 | |
| 20260905021603 | 57 | 268 | 8.0 | 16.0 | 0.00 | 0.07 | 0.00 | 82 | |
| 20260905021503 | 57 | 269 | 8.0 | 16.0 | 0.00 | 0.07 | 0.00 | 82 | |
| 20260905021403 | 57 | 268 | 8.0 | 16.0 | 0.00 | 0.07 | 0.00 | 82 | |
| 20260905021303 | 57 | 270 | 8.0 | 16.0 | 0.00 | 0.07 | 0.00 | 82 | |
| 20260905021203 | 57 | 270 | 9.0 | 16.0 | 0.00 | 0.07 | 0.00 | 82 | |
| 20260905021103 | 57 | 272 | 8.0 | 16.0 | 0.00 | 0.08 | 0.00 | 82 | |
| 20260905021003 | 57 | 273 | 8.0 | 14.0 | 0.00 | 0.08 | 0.00 | 82 | |
| 20260905020903 | 57 | 273 | 8.0 | 14.0 | 0.00 | 0.08 | 0.00 | 82 | |
| 20260905020803 | 57 | 275 | 8.0 | 14.0 | 0.00 | 0.08 | 0.00 | 81 | |
| 20260905020704 | 57 | 277 | 9.0 | 14.0 | 0.00 | 0.09 | 0.00 | 81 | |
| 20260905020603 | 57 | 277 | 8.0 | 14.0 | 0.00 | 0.09 | 0.00 | 81 | |
| 20260905020503 | 57 | 277 | 8.0 | 14.0 | 0.00 | 0.09 | 0.00 | 81 | |
| 20260905020403 | 57 | 278 | 8.0 | 14.0 | 0.00 | 0.09 | 0.00 | 81 | |
| 20260905020303 | 57 | 277 | 8.0 | 14.0 | 0.00 | 0.09 | 0.00 | 81 | |
| 20260905020203 | 57 | 277 | 8.0 | 14.0 | 0.00 | 0.09 | 0.00 | 81 | |
| 20260905020103 | 57 | 276 | 8.0 | 14.0 | 0.00 | 0.10 | 0.00 | 81 | |
| 20260905020003 | 57 | 275 | 8.0 | 14.0 | 0.00 | 0.10 | 0.00 | 81 | |
| 20260905015903 | 57 | 276 | 8.0 | 14.0 | 0.00 | 0.11 | 0.00 | 81 | |
| 20260905015824 | 57 | 276 | 8.0 | 14.0 | 0.00 | 0.11 | 0.00 | 81 | |
| 20260905015703 | 57 | 276 | 8.0 | 14.0 | 0.00 | 0.11 | 0.00 | 81 | |
| 20260905015604 | 57 | 275 | 8.0 | 14.0 | 0.00 | 0.12 | 0.00 | 81 | |
| 20260905015503 | 57 | 275 | 8.0 | 14.0 | 0.00 | 0.12 | 0.00 | 81 | |
| 20260905015403 | 57 | 274 | 8.0 | 13.0 | 0.00 | 0.12 | 0.00 | 81 | |
| 20260905015306 | 57 | 274 | 8.0 | 13.0 | 0.00 | 0.13 | 0.00 | 81 | |
| 20260905015203 | 58 | 274 | 8.0 | 13.0 | 0.00 | 0.13 | 0.00 | 81 | |
| 20260905015103 | 58 | 274 | 8.0 | 13.0 | 0.00 | 0.13 | 0.00 | 81 | |
| 20260905015003 | 58 | 273 | 8.0 | 13.0 | 0.00 | 0.13 | 0.00 | 81 | |
| 20260905014924 | 58 | 273 | 8.0 | 15.0 | 0.00 | 0.13 | 0.00 | 81 | |
| 20260905014803 | 58 | 272 | 8.0 | 15.0 | 0.00 | 0.13 | 0.00 | 81 | |
| 20260905014703 | 58 | 269 | 8.0 | 15.0 | 0.00 | 0.14 | 0.00 | 81 | |
| 20260905014603 | 58 | 268 | 8.0 | 15.0 | 0.00 | 0.14 | 0.00 | 81 | |
| 20260905014503 | 58 | 266 | 9.0 | 16.0 | 0.00 | 0.15 | 0.00 | 81 | |
| 20260905014403 | 58 | 264 | 9.0 | 16.0 | 0.00 | 0.15 | 0.00 | 82 | |
| 20260905014303 | 58 | 262 | 9.0 | 16.0 | 0.00 | 0.16 | 0.00 | 82 | |
| 20260905014203 | 58 | 260 | 10.0 | 16.0 | 0.00 | 0.16 | 0.00 | 82 | |
| 20260905014103 | 58 | 258 | 10.0 | 19.0 | 0.00 | 0.16 | 0.00 | 82 | |
| 20260905014003 | 58 | 257 | 11.0 | 19.0 | 0.00 | 0.17 | 0.00 | 82 | |
| 20260905013903 | 58 | 255 | 11.0 | 19.0 | 0.00 | 0.17 | 0.00 | 82 | |
| 20260905013803 | 58 | 254 | 11.0 | 19.0 | 0.00 | 0.17 | 0.00 | 82 | |
| 20260905013704 | 58 | 254 | 11.0 | 19.0 | 0.00 | 0.17 | 0.00 | 82 | |
| 20260905013603 | 58 | 254 | 11.0 | 19.0 | 0.00 | 0.17 | 0.00 | 82 | |
| 20260905013524 | 58 | 255 | 11.0 | 19.0 | 0.00 | 0.17 | 0.00 | 82 | |
| 20260905013424 | 58 | 257 | 11.0 | 19.0 | 0.00 | 0.17 | 0.00 | 81 | |
| 20260905013303 | 58 | 258 | 10.0 | 19.0 | 0.00 | 0.18 | 0.00 | 81 | |
| 20260905013203 | 58 | 260 | 10.0 | 19.0 | 0.00 | 0.18 | 0.00 | 82 | |
| 20260905013103 | 58 | 262 | 10.0 | 16.0 | 0.00 | 0.18 | 0.00 | 82 | |
| 20260905013003 | 58 | 265 | 10.0 | 16.0 | 0.00 | 0.18 | 0.00 | 81 | |
| 20260905012924 | 58 | 269 | 10.0 | 14.0 | 0.00 | 0.18 | 0.00 | 81 | |
| 20260905012803 | 58 | 273 | 10.0 | 14.0 | 0.00 | 0.19 | 0.00 | 81 | |
| 20260905012703 | 58 | 276 | 10.0 | 15.0 | 0.00 | 0.19 | 0.00 | 81 | |
| 20260905012604 | 58 | 279 | 10.0 | 15.0 | 0.00 | 0.19 | 0.00 | 81 | |
| 20260905012503 | 58 | 281 | 10.0 | 15.0 | 0.00 | 0.20 | 0.00 | 81 | |
| 20260905012403 | 58 | 282 | 11.0 | 15.0 | 0.00 | 0.20 | 0.00 | 81 | |
| 20260905012306 | 58 | 284 | 11.0 | 15.0 | 0.00 | 0.20 | 0.00 | 81 | |
| 20260905012203 | 58 | 285 | 11.0 | 15.0 | 0.00 | 0.20 | 0.00 | 81 | |
| 20260905012103 | 58 | 286 | 11.0 | 15.0 | 0.00 | 0.20 | 0.00 | 81 | |
| 20260905012003 | 58 | 287 | 10.0 | 15.0 | 0.00 | 0.20 | 0.00 | 81 | |
| 20260905011903 | 58 | 286 | 10.0 | 15.0 | 0.00 | 0.20 | 0.00 | 81 | |
| 20260905011803 | 58 | 286 | 10.0 | 15.0 | 0.00 | 0.21 | 0.00 | 81 | |
| 20260905011704 | 58 | 285 | 10.0 | 14.0 | 0.00 | 0.21 | 0.00 | 81 | |
| 20260905011624 | 58 | 284 | 10.0 | 14.0 | 0.00 | 0.21 | 0.00 | 81 | |
| 20260905011524 | 58 | 282 | 9.0 | 13.0 | 0.00 | 0.21 | 0.00 | 81 | |
| 20260905011403 | 58 | 280 | 9.0 | 15.0 | 0.00 | 0.21 | 0.00 | 81 | |
| 20260905011304 | 58 | 277 | 9.0 | 15.0 | 0.00 | 0.21 | 0.00 | 81 | |
| 20260905011225 | 58 | 276 | 9.0 | 15.0 | 0.00 | 0.22 | 0.00 | 81 | |
| 20260905011103 | 58 | 275 | 9.0 | 15.0 | 0.00 | 0.22 | 0.00 | 81 | |
| 20260905011003 | 58 | 273 | 9.0 | 15.0 | 0.00 | 0.22 | 0.00 | 81 | |
| 20260905010903 | 58 | 272 | 9.0 | 15.0 | 0.00 | 0.22 | 0.00 | 81 | |
| 20260905010804 | 58 | 272 | 9.0 | 15.0 | 0.00 | 0.22 | 0.00 | 81 | |
| 20260905010703 | 58 | 272 | 9.0 | 15.0 | 0.00 | 0.22 | 0.00 | 81 | |
| 20260905010603 | 58 | 273 | 9.0 | 15.0 | 0.00 | 0.22 | 0.00 | 81 | |
| 20260905010503 | 58 | 275 | 9.0 | 15.0 | 0.00 | 0.22 | 0.00 | 81 | |
| 20260905010403 | 58 | 277 | 9.0 | 13.0 | 0.00 | 0.23 | 0.00 | 81 | |
| 20260905010303 | 58 | 279 | 9.0 | 13.0 | 0.00 | 0.23 | 0.00 | 81 | |
| 20260905010203 | 58 | 278 | 9.0 | 15.0 | 0.00 | 0.23 | 0.00 | 81 | |
| 20260905010103 | 58 | 279 | 9.0 | 15.0 | 0.00 | 0.23 | 0.00 | 81 | |
| 20260905010003 | 58 | 279 | 9.0 | 15.0 | 0.00 | 0.23 | 0.00 | 81 | |
| 20260905005924 | 58 | 281 | 9.0 | 15.0 | 0.00 | 0.24 | 0.00 | 81 | |
| 20260905005803 | 58 | 280 | 9.0 | 15.0 | 0.00 | 0.24 | 0.00 | 81 | |
| 20260905005703 | 58 | 280 | 9.0 | 15.0 | 0.00 | 0.24 | 0.00 | 81 | |
| 20260905005603 | 58 | 279 | 9.0 | 15.0 | 0.00 | 0.24 | 0.00 | 81 | |
| 20260905005503 | 58 | 278 | 9.0 | 15.0 | 0.00 | 0.24 | 0.00 | 81 | |
| 20260905005404 | 58 | 277 | 9.0 | 15.0 | 0.00 | 0.24 | 0.00 | 81 | |
| 20260905005306 | 58 | 278 | 9.0 | 15.0 | 0.00 | 0.24 | 0.00 | 81 | |
| 20260905005203 | 58 | 279 | 9.0 | 14.0 | 0.00 | 0.24 | 0.00 | 81 | |
| 20260905005103 | 58 | 280 | 9.0 | 14.0 | 0.00 | 0.24 | 0.00 | 81 | |
| 20260905005003 | 58 | 279 | 9.0 | 14.0 | 0.00 | 0.24 | 0.00 | 81 | |
| 20260905004924 | 58 | 279 | 9.0 | 14.0 | 0.00 | 0.24 | 0.00 | 81 | |
| 20260905004803 | 58 | 279 | 9.0 | 14.0 | 0.00 | 0.24 | 0.00 | 81 | |
| 20260905004703 | 58 | 281 | 10.0 | 14.0 | 0.00 | 0.24 | 0.00 | 81 | |
| 20260905004603 | 59 | 281 | 10.0 | 14.0 | 0.00 | 0.24 | 0.00 | 81 | |
| 20260905004503 | 59 | 281 | 10.0 | 15.0 | 0.00 | 0.24 | 0.00 | 81 | |
| 20260905004403 | 59 | 281 | 10.0 | 15.0 | 0.00 | 0.24 | 0.00 | 81 | |
| 20260905004303 | 59 | 281 | 10.0 | 15.0 | 0.00 | 0.24 | 0.00 | 81 | |
| 20260905004203 | 59 | 281 | 10.0 | 15.0 | 0.00 | 0.24 | 0.00 | 81 | |
| 20260905004103 | 59 | 281 | 10.0 | 15.0 | 0.00 | 0.24 | 0.00 | 81 | |
| 20260905004003 | 59 | 280 | 10.0 | 15.0 | 0.00 | 0.24 | 0.00 | 81 | |
| 20260905003903 | 59 | 280 | 10.0 | 15.0 | 0.00 | 0.24 | 0.00 | 81 | |
| 20260905003803 | 59 | 280 | 10.0 | 15.0 | 0.00 | 0.24 | 0.00 | 81 | |
| 20260905003703 | 59 | 279 | 10.0 | 15.0 | 0.00 | 0.24 | 0.00 | 82 | |
| 20260905003603 | 59 | 278 | 10.0 | 15.0 | 0.00 | 0.24 | 0.00 | 82 | |
| 20260905003503 | 59 | 276 | 10.0 | 15.0 | 0.00 | 0.24 | 0.00 | 82 | |
| 20260905003403 | 59 | 275 | 10.0 | 15.0 | 0.00 | 0.24 | 0.00 | 82 | |
| 20260905003303 | 59 | 275 | 10.0 | 15.0 | 0.00 | 0.24 | 0.00 | 81 | |
| 20260905003203 | 59 | 276 | 10.0 | 15.0 | 0.00 | 0.24 | 0.00 | 82 | |
| 20260905003103 | 59 | 275 | 10.0 | 16.0 | 0.00 | 0.24 | 0.00 | 82 | |
| 20260905003003 | 59 | 275 | 10.0 | 16.0 | 0.00 | 0.24 | 0.00 | 82 | |
| 20260905002903 | 59 | 274 | 10.0 | 16.0 | 0.00 | 0.25 | 0.00 | 82 | |
| 20260905002824 | 59 | 275 | 10.0 | 16.0 | 0.00 | 0.25 | 0.00 | 82 | |
| 20260905002703 | 59 | 277 | 10.0 | 16.0 | 0.00 | 0.25 | 0.00 | 81 | |
| 20260905002624 | 59 | 277 | 10.0 | 16.0 | 0.00 | 0.25 | 0.00 | 81 | |
| 20260905002524 | 59 | 279 | 10.0 | 16.0 | 0.00 | 0.25 | 0.00 | 81 | |
| 20260905002403 | 59 | 280 | 10.0 | 16.0 | 0.00 | 0.25 | 0.00 | 81 | |
| 20260905002306 | 59 | 280 | 11.0 | 16.0 | 0.00 | 0.25 | 0.00 | 81 | |
| 20260905002203 | 59 | 279 | 11.0 | 16.0 | 0.00 | 0.25 | 0.00 | 81 | |
| 20260905002103 | 59 | 279 | 11.0 | 16.0 | 0.00 | 0.25 | 0.00 | 81 | |
| 20260905002024 | 59 | 279 | 11.0 | 19.0 | 0.00 | 0.25 | 0.00 | 81 | |
| 20260905001903 | 59 | 280 | 12.0 | 19.0 | 0.00 | 0.25 | 0.00 | 80 | |
| 20260905001803 | 59 | 280 | 12.0 | 19.0 | 0.00 | 0.25 | 0.00 | 80 | |
| 20260905001703 | 59 | 278 | 12.0 | 19.0 | 0.00 | 0.25 | 0.00 | 81 | |
| 20260905001624 | 59 | 277 | 12.0 | 19.0 | 0.00 | 0.25 | 0.00 | 81 | |
| 20260905001504 | 59 | 276 | 11.0 | 19.0 | 0.00 | 0.25 | 0.00 | 81 | |
| 20260905001405 | 59 | 274 | 11.0 | 19.0 | 0.00 | 0.25 | 0.00 | 81 | |
| 20260905001303 | 59 | 273 | 11.0 | 19.0 | 0.00 | 0.25 | 0.00 | 81 | |
| 20260905001203 | 59 | 272 | 11.0 | 19.0 | 0.00 | 0.25 | 0.00 | 81 | |
| 20260905001103 | 59 | 268 | 11.0 | 19.0 | 0.00 | 0.25 | 0.00 | 81 | |
| 20260905001003 | 59 | 269 | 11.0 | 19.0 | 0.00 | 0.26 | 0.00 | 81 | |
| 20260905000903 | 59 | 266 | 11.0 | 19.0 | 0.00 | 0.26 | 0.00 | 82 | |
| 20260905000824 | 59 | 266 | 11.0 | 19.0 | 0.00 | 0.26 | 0.00 | 82 | |
| 20260905000704 | 59 | 265 | 11.0 | 19.0 | 0.00 | 0.26 | 0.00 | 82 | |
| 20260905000624 | 59 | 264 | 11.0 | 19.0 | 0.00 | 0.26 | 0.00 | 82 | |
| 20260905000503 | 59 | 264 | 12.0 | 19.0 | 0.00 | 0.26 | 0.00 | 81 | |
| 20260905000403 | 59 | 265 | 12.0 | 19.0 | 0.00 | 0.26 | 0.00 | 81 | |
| 20260905000303 | 59 | 266 | 12.0 | 19.0 | 0.00 | 0.26 | 0.00 | 81 | |
| 20260905000226 | 59 | 266 | 12.0 | 19.0 | 0.00 | 0.26 | 0.00 | 81 | |
| 20260905000003 | 59 | 265 | 11.0 | 19.0 | 0.00 | 0.26 | 0.00 | 82 | |
| 20260904235903 | 59 | 265 | 11.0 | 19.0 | 0.00 | 0.26 | 0.00 | 82 | |
| 20260904235803 | 59 | 263 | 11.0 | 19.0 | 0.00 | 0.27 | 0.00 | 82 | |
| 20260904235724 | 59 | 261 | 11.0 | 19.0 | 0.00 | 0.27 | 0.00 | 82 | |
| 20260904235603 | 59 | 261 | 11.0 | 19.0 | 0.00 | 0.27 | 0.00 | 82 | |
| 20260904235504 | 59 | 258 | 11.0 | 19.0 | 0.00 | 0.27 | 0.00 | 82 | |
| 20260904235404 | 59 | 257 | 11.0 | 19.0 | 0.00 | 0.27 | 0.00 | 82 | |
| 20260904235306 | 59 | 255 | 11.0 | 19.0 | 0.00 | 0.27 | 0.00 | 82 | |
| 20260904235224 | 59 | 254 | 11.0 | 19.0 | 0.00 | 0.27 | 0.00 | 82 | |
| 20260904235103 | 59 | 253 | 12.0 | 19.0 | 0.00 | 0.27 | 0.00 | 82 | |
| 20260904235003 | 59 | 251 | 12.0 | 18.0 | 0.00 | 0.27 | 0.00 | 82 | |
| 20260904234903 | 59 | 251 | 12.0 | 18.0 | 0.00 | 0.27 | 0.00 | 82 | |
| 20260904234803 | 59 | 251 | 12.0 | 16.0 | 0.00 | 0.27 | 0.00 | 82 | |
| 20260904234724 | 59 | 253 | 12.0 | 16.0 | 0.00 | 0.27 | 0.00 | 82 | |
| 20260904234603 | 59 | 251 | 12.0 | 16.0 | 0.00 | 0.27 | 0.00 | 82 | |
| 20260904234524 | 59 | 251 | 12.0 | 16.0 | 0.00 | 0.27 | 0.00 | 82 | |
| 20260904234403 | 59 | 251 | 12.0 | 16.0 | 0.00 | 0.27 | 0.00 | 82 | |
| 20260904234325 | 59 | 251 | 12.0 | 15.0 | 0.00 | 0.27 | 0.00 | 82 | |
| 20260904234224 | 59 | 251 | 12.0 | 16.0 | 0.00 | 0.27 | 0.00 | 82 | |
| 20260904234103 | 59 | 251 | 11.0 | 16.0 | 0.00 | 0.28 | 0.00 | 83 | |
| 20260904234003 | 59 | 252 | 11.0 | 16.0 | 0.00 | 0.28 | 0.00 | 83 | |
| 20260904233903 | 59 | 253 | 11.0 | 16.0 | 0.00 | 0.28 | 0.00 | 83 | |
| 20260904233803 | 59 | 253 | 11.0 | 16.0 | 0.00 | 0.28 | 0.00 | 83 | |
| 20260904233703 | 59 | 253 | 11.0 | 16.0 | 0.00 | 0.28 | 0.00 | 83 | |
| 20260904233603 | 59 | 255 | 10.0 | 16.0 | 0.00 | 0.28 | 0.00 | 83 | |
| 20260904233503 | 59 | 255 | 10.0 | 16.0 | 0.00 | 0.28 | 0.00 | 83 | |
| 20260904233403 | 59 | 256 | 10.0 | 16.0 | 0.00 | 0.28 | 0.00 | 83 | |
| 20260904233303 | 59 | 255 | 10.0 | 15.0 | 0.00 | 0.28 | 0.00 | 83 | |
| 20260904233203 | 59 | 256 | 11.0 | 15.0 | 0.00 | 0.28 | 0.00 | 83 | |
| 20260904233103 | 59 | 256 | 11.0 | 19.0 | 0.00 | 0.28 | 0.00 | 83 | |
| 20260904233003 | 59 | 257 | 11.0 | 19.0 | 0.00 | 0.28 | 0.00 | 82 | |
| 20260904232903 | 59 | 256 | 11.0 | 19.0 | 0.00 | 0.28 | 0.00 | 82 | |
| 20260904232803 | 59 | 256 | 11.0 | 19.0 | 0.00 | 0.28 | 0.00 | 82 | |
| 20260904232703 | 59 | 255 | 12.0 | 19.0 | 0.00 | 0.28 | 0.00 | 82 | |
| 20260904232603 | 59 | 254 | 12.0 | 19.0 | 0.00 | 0.28 | 0.00 | 82 | |
| 20260904232503 | 59 | 253 | 12.0 | 19.0 | 0.00 | 0.28 | 0.00 | 82 | |
| 20260904232403 | 59 | 252 | 12.0 | 19.0 | 0.00 | 0.28 | 0.00 | 82 | |
| 20260904232306 | 59 | 252 | 13.0 | 19.0 | 0.00 | 0.28 | 0.00 | 82 | |
| 20260904232203 | 59 | 251 | 12.0 | 19.0 | 0.00 | 0.28 | 0.00 | 82 | |
| 20260904232103 | 59 | 250 | 12.0 | 19.0 | 0.00 | 0.28 | 0.00 | 81 | |
| 20260904232003 | 59 | 249 | 13.0 | 19.0 | 0.00 | 0.28 | 0.00 | 81 | |
| 20260904231904 | 59 | 248 | 13.0 | 19.0 | 0.00 | 0.28 | 0.00 | 81 | |
| 20260904231803 | 60 | 248 | 13.0 | 19.0 | 0.00 | 0.28 | 0.00 | 81 | |
| 20260904231703 | 60 | 246 | 13.0 | 19.0 | 0.00 | 0.28 | 0.00 | 80 | |
| 20260904231603 | 60 | 246 | 13.0 | 19.0 | 0.00 | 0.28 | 0.00 | 80 | |
| 20260904231503 | 60 | 246 | 13.0 | 19.0 | 0.00 | 0.28 | 0.00 | 80 | |
| 20260904231405 | 60 | 246 | 12.0 | 19.0 | 0.00 | 0.28 | 0.00 | 80 | |
| 20260904231303 | 60 | 246 | 12.0 | 19.0 | 0.00 | 0.28 | 0.00 | 79 | |
| 20260904231203 | 60 | 246 | 12.0 | 19.0 | 0.00 | 0.28 | 0.00 | 79 | |
| 20260904231124 | 60 | 247 | 12.0 | 19.0 | 0.00 | 0.28 | 0.00 | 79 | |
| 20260904231003 | 60 | 250 | 11.0 | 19.0 | 0.00 | 0.28 | 0.00 | 78 | |
| 20260904230903 | 60 | 253 | 11.0 | 19.0 | 0.00 | 0.28 | 0.00 | 78 | |
| 20260904230803 | 60 | 256 | 11.0 | 21.0 | 0.00 | 0.28 | 0.00 | 78 | |
| 20260904230703 | 60 | 260 | 11.0 | 21.0 | 0.00 | 0.28 | 0.00 | 78 | |
| 20260904230603 | 60 | 264 | 11.0 | 21.0 | 0.00 | 0.28 | 0.00 | 78 | |
| 20260904230503 | 60 | 267 | 11.0 | 21.0 | 0.00 | 0.28 | 0.00 | 77 | |
| 20260904230403 | 60 | 269 | 11.0 | 21.0 | 0.00 | 0.28 | 0.00 | 77 | |
| 20260904230303 | 60 | 271 | 11.0 | 21.0 | 0.00 | 0.28 | 0.00 | 77 | |
| 20260904230203 | 60 | 274 | 12.0 | 21.0 | 0.00 | 0.28 | 0.00 | 77 | |
| 20260904230003 | 61 | 274 | 12.0 | 21.0 | 0.00 | 0.28 | 0.00 | 77 | |
| 20260904225903 | 61 | 275 | 12.0 | 21.0 | 0.00 | 0.28 | 0.28 | 77 | |
| 20260904225803 | 61 | 276 | 12.0 | 20.0 | 0.00 | 0.28 | 0.28 | 77 | |
| 20260904225703 | 61 | 276 | 12.0 | 20.0 | 0.00 | 0.28 | 0.28 | 77 | |
| 20260904225624 | 61 | 276 | 12.0 | 20.0 | 0.00 | 0.28 | 0.28 | 77 | |
| 20260904225503 | 61 | 275 | 12.0 | 23.0 | 0.00 | 0.29 | 0.28 | 77 | |
| 20260904225424 | 61 | 275 | 12.0 | 23.0 | 0.00 | 0.29 | 0.28 | 77 | |
| 20260904225305 | 61 | 276 | 12.0 | 23.0 | 0.00 | 0.29 | 0.28 | 77 | |
| 20260904225203 | 60 | 276 | 12.0 | 23.0 | 0.00 | 0.29 | 0.28 | 77 | |
| 20260904225104 | 61 | 276 | 13.0 | 23.0 | 0.00 | 0.29 | 0.28 | 77 | |
| 20260904225003 | 61 | 277 | 13.0 | 23.0 | 0.00 | 0.29 | 0.28 | 77 | |
| 20260904224903 | 61 | 277 | 13.0 | 23.0 | 0.00 | 0.29 | 0.28 | 77 | |
| 20260904224803 | 61 | 276 | 13.0 | 23.0 | 0.00 | 0.29 | 0.28 | 77 | |
| 20260904224703 | 61 | 276 | 14.0 | 23.0 | 0.00 | 0.29 | 0.28 | 77 | |
| 20260904224603 | 61 | 277 | 14.0 | 23.0 | 0.00 | 0.29 | 0.28 | 77 | |
| 20260904224503 | 61 | 277 | 14.0 | 23.0 | 0.00 | 0.29 | 0.28 | 77 | |
| 20260904224403 | 61 | 277 | 14.0 | 23.0 | 0.00 | 0.29 | 0.28 | 77 | |
| 20260904224324 | 61 | 277 | 14.0 | 23.0 | 0.00 | 0.29 | 0.28 | 77 | |
| 20260904224224 | 61 | 278 | 14.0 | 23.0 | 0.00 | 0.29 | 0.28 | 77 | |
| 20260904224124 | 61 | 278 | 13.0 | 23.0 | 0.00 | 0.29 | 0.28 | 77 | |
| 20260904224003 | 61 | 277 | 13.0 | 23.0 | 0.00 | 0.29 | 0.28 | 77 | |
| 20260904223903 | 61 | 278 | 13.0 | 23.0 | 0.00 | 0.29 | 0.28 | 77 | |
| 20260904223804 | 61 | 279 | 14.0 | 23.0 | 0.00 | 0.29 | 0.28 | 77 | |
| 20260904223724 | 61 | 279 | 14.0 | 23.0 | 0.00 | 0.29 | 0.28 | 77 | |
| 20260904223603 | 61 | 279 | 14.0 | 23.0 | 0.00 | 0.29 | 0.28 | 77 | |
| 20260904223503 | 61 | 279 | 15.0 | 23.0 | 0.00 | 0.29 | 0.28 | 77 | |
| 20260904223424 | 61 | 280 | 15.0 | 23.0 | 0.00 | 0.29 | 0.28 | 77 | |
| 20260904223303 | 61 | 280 | 14.0 | 23.0 | 0.00 | 0.29 | 0.28 | 77 | |
| 20260904223203 | 61 | 278 | 15.0 | 23.0 | 0.00 | 0.29 | 0.28 | 77 | |
| 20260904223103 | 61 | 277 | 14.0 | 23.0 | 0.00 | 0.29 | 0.28 | 77 | |
| 20260904223024 | 61 | 277 | 14.0 | 23.0 | 0.00 | 0.29 | 0.28 | 77 | |
| 20260904222903 | 61 | 275 | 14.0 | 23.0 | 0.00 | 0.29 | 0.28 | 77 | |
| 20260904222824 | 61 | 274 | 14.0 | 23.0 | 0.00 | 0.29 | 0.28 | 77 | |
| 20260904222703 | 61 | 272 | 14.0 | 23.0 | 0.00 | 0.29 | 0.28 | 77 | |
| 20260904222624 | 61 | 269 | 14.0 | 23.0 | 0.00 | 0.29 | 0.28 | 77 | |
| 20260904222503 | 61 | 265 | 12.0 | 23.0 | 0.00 | 0.29 | 0.28 | 77 | |
| 20260904222424 | 61 | 263 | 12.0 | 22.0 | 0.00 | 0.29 | 0.28 | 77 | |
| 20260904222306 | 61 | 260 | 12.0 | 20.0 | 0.00 | 0.29 | 0.28 | 77 | |
| 20260904222203 | 61 | 258 | 12.0 | 20.0 | 0.00 | 0.29 | 0.28 | 77 | |
| 20260904222103 | 61 | 257 | 12.0 | 20.0 | 0.00 | 0.29 | 0.28 | 77 | |
| 20260904222003 | 61 | 255 | 12.0 | 20.0 | 0.00 | 0.29 | 0.28 | 77 | |
| 20260904221903 | 61 | 256 | 12.0 | 20.0 | 0.00 | 0.29 | 0.28 | 77 | |
| 20260904221803 | 61 | 255 | 12.0 | 20.0 | 0.00 | 0.29 | 0.28 | 78 | |
| 20260904221703 | 61 | 256 | 12.0 | 20.0 | 0.00 | 0.29 | 0.28 | 78 | |
| 20260904221603 | 61 | 258 | 12.0 | 20.0 | 0.00 | 0.29 | 0.28 | 77 | |
| 20260904221503 | 61 | 259 | 11.0 | 20.0 | 0.00 | 0.29 | 0.28 | 78 | |
| 20260904221403 | 61 | 259 | 12.0 | 20.0 | 0.00 | 0.29 | 0.28 | 78 | |
| 20260904221324 | 61 | 258 | 11.0 | 20.0 | 0.00 | 0.29 | 0.28 | 78 | |
| 20260904221203 | 61 | 260 | 11.0 | 20.0 | 0.00 | 0.29 | 0.28 | 78 | |
| 20260904221124 | 61 | 259 | 11.0 | 20.0 | 0.00 | 0.29 | 0.28 | 78 | |
| 20260904221003 | 61 | 259 | 11.0 | 20.0 | 0.00 | 0.29 | 0.28 | 78 | |
| 20260904220924 | 61 | 259 | 11.0 | 20.0 | 0.00 | 0.29 | 0.28 | 78 | |
| 20260904220803 | 61 | 258 | 11.0 | 20.0 | 0.00 | 0.29 | 0.28 | 78 | |
| 20260904220703 | 61 | 256 | 12.0 | 20.0 | 0.00 | 0.29 | 0.28 | 78 | |
| 20260904220603 | 61 | 255 | 12.0 | 20.0 | 0.00 | 0.29 | 0.28 | 77 | |
| 20260904220503 | 61 | 254 | 12.0 | 20.0 | 0.00 | 0.29 | 0.28 | 77 | |
| 20260904220403 | 61 | 254 | 11.0 | 20.0 | 0.00 | 0.29 | 0.28 | 77 | |
| 20260904220303 | 61 | 253 | 11.0 | 20.0 | 0.00 | 0.29 | 0.28 | 77 | |
| 20260904220203 | 61 | 251 | 11.0 | 20.0 | 0.00 | 0.29 | 0.28 | 77 | |
| 20260904220003 | 61 | 252 | 11.0 | 20.0 | 0.00 | 0.29 | 0.28 | 77 | |
| 20260904215924 | 61 | 252 | 11.0 | 20.0 | 0.00 | 0.29 | 0.28 | 77 | |
| 20260904215803 | 61 | 251 | 10.0 | 20.0 | 0.00 | 0.29 | 0.28 | 77 | |
| 20260904215703 | 61 | 252 | 10.0 | 20.0 | 0.00 | 0.29 | 0.28 | 77 | |
| 20260904215603 | 61 | 252 | 10.0 | 18.0 | 0.00 | 0.29 | 0.28 | 77 | |
| 20260904215503 | 61 | 252 | 10.0 | 18.0 | 0.00 | 0.29 | 0.28 | 77 | |
| 20260904215403 | 61 | 252 | 10.0 | 18.0 | 0.00 | 0.29 | 0.28 | 77 | |
| 20260904215325 | 61 | 252 | 10.0 | 18.0 | 0.00 | 0.29 | 0.28 | 77 | |
| 20260904215203 | 61 | 254 | 9.0 | 18.0 | 0.00 | 0.29 | 0.28 | 77 | |
| 20260904215124 | 61 | 254 | 9.0 | 18.0 | 0.00 | 0.29 | 0.28 | 77 | |
| 20260904215003 | 61 | 253 | 10.0 | 18.0 | 0.00 | 0.29 | 0.28 | 77 | |
| 20260904214903 | 61 | 253 | 10.0 | 19.0 | 0.00 | 0.29 | 0.28 | 77 | |
| 20260904214803 | 61 | 253 | 10.0 | 19.0 | 0.00 | 0.29 | 0.28 | 77 | |
| 20260904214703 | 61 | 252 | 10.0 | 19.0 | 0.00 | 0.29 | 0.28 | 77 | |
| 20260904214604 | 61 | 253 | 10.0 | 19.0 | 0.00 | 0.29 | 0.28 | 77 | |
| 20260904214503 | 61 | 254 | 10.0 | 19.0 | 0.00 | 0.29 | 0.28 | 76 | |
| 20260904214424 | 61 | 254 | 10.0 | 19.0 | 0.00 | 0.29 | 0.28 | 76 | |
| 20260904214303 | 61 | 254 | 10.0 | 19.0 | 0.00 | 0.29 | 0.28 | 76 | |
| 20260904214204 | 61 | 254 | 10.0 | 19.0 | 0.00 | 0.29 | 0.28 | 76 | |
| 20260904214103 | 61 | 256 | 10.0 | 19.0 | 0.00 | 0.29 | 0.28 | 76 | |
| 20260904214003 | 61 | 256 | 10.0 | 19.0 | 0.00 | 0.29 | 0.28 | 76 | |
| 20260904213903 | 61 | 257 | 9.0 | 15.0 | 0.00 | 0.29 | 0.28 | 76 | |
| 20260904213824 | 61 | 256 | 9.0 | 15.0 | 0.00 | 0.29 | 0.28 | 76 | |
| 20260904213703 | 61 | 256 | 10.0 | 15.0 | 0.00 | 0.29 | 0.28 | 76 | |
| 20260904213603 | 61 | 255 | 10.0 | 15.0 | 0.00 | 0.29 | 0.28 | 77 | |
| 20260904213524 | 61 | 254 | 10.0 | 15.0 | 0.00 | 0.29 | 0.28 | 77 | |
| 20260904213403 | 61 | 255 | 10.0 | 15.0 | 0.00 | 0.29 | 0.28 | 77 | |
| 20260904213303 | 61 | 254 | 10.0 | 14.0 | 0.00 | 0.29 | 0.28 | 77 | |
| 20260904213204 | 61 | 255 | 10.0 | 14.0 | 0.00 | 0.29 | 0.28 | 77 | |
| 20260904213103 | 61 | 254 | 9.0 | 14.0 | 0.00 | 0.29 | 0.28 | 77 | |
| 20260904213003 | 61 | 257 | 10.0 | 14.0 | 0.00 | 0.29 | 0.28 | 77 | |
| 20260904212903 | 61 | 257 | 10.0 | 18.0 | 0.00 | 0.29 | 0.28 | 77 | |
| 20260904212804 | 61 | 258 | 10.0 | 18.0 | 0.00 | 0.29 | 0.28 | 77 | |
| 20260904212703 | 61 | 260 | 10.0 | 18.0 | 0.00 | 0.29 | 0.28 | 77 | |
| 20260904212603 | 61 | 260 | 9.0 | 18.0 | 0.00 | 0.29 | 0.28 | 77 | |
| 20260904212503 | 61 | 261 | 9.0 | 18.0 | 0.00 | 0.29 | 0.28 | 77 | |
| 20260904212403 | 61 | 262 | 10.0 | 18.0 | 0.00 | 0.29 | 0.28 | 76 | |
| 20260904212306 | 61 | 262 | 10.0 | 18.0 | 0.00 | 0.29 | 0.28 | 76 | |
| 20260904212203 | 61 | 263 | 10.0 | 18.0 | 0.00 | 0.29 | 0.28 | 76 | |
| 20260904212103 | 61 | 262 | 10.0 | 18.0 | 0.00 | 0.29 | 0.28 | 76 | |
| 20260904212024 | 61 | 261 | 10.0 | 18.0 | 0.00 | 0.29 | 0.28 | 76 | |
| 20260904211924 | 61 | 261 | 10.0 | 16.0 | 0.00 | 0.29 | 0.28 | 76 | |
| 20260904211803 | 61 | 261 | 10.0 | 16.0 | 0.00 | 0.29 | 0.28 | 76 | |
| 20260904211703 | 61 | 260 | 10.0 | 16.0 | 0.00 | 0.29 | 0.28 | 76 | |
| 20260904211603 | 61 | 259 | 10.0 | 16.0 | 0.00 | 0.29 | 0.28 | 76 | |
| 20260904211503 | 61 | 258 | 10.0 | 16.0 | 0.00 | 0.29 | 0.28 | 76 | |
| 20260904211403 | 61 | 258 | 10.0 | 16.0 | 0.00 | 0.29 | 0.28 | 76 | |
| 20260904211303 | 61 | 257 | 11.0 | 16.0 | 0.00 | 0.29 | 0.28 | 76 | |
| 20260904211203 | 61 | 256 | 11.0 | 19.0 | 0.00 | 0.29 | 0.28 | 76 | |
| 20260904211103 | 61 | 256 | 11.0 | 19.0 | 0.00 | 0.29 | 0.28 | 76 | |
| 20260904211024 | 61 | 256 | 11.0 | 19.0 | 0.00 | 0.29 | 0.28 | 76 | |
| 20260904210903 | 61 | 256 | 11.0 | 19.0 | 0.00 | 0.29 | 0.28 | 76 | |
| 20260904210803 | 61 | 255 | 11.0 | 19.0 | 0.00 | 0.29 | 0.28 | 76 | |
| 20260904210703 | 61 | 256 | 11.0 | 19.0 | 0.00 | 0.29 | 0.28 | 76 | |
| 20260904210603 | 61 | 255 | 11.0 | 19.0 | 0.00 | 0.29 | 0.28 | 76 | |
| 20260904210503 | 61 | 254 | 11.0 | 19.0 | 0.00 | 0.29 | 0.28 | 76 | |
| 20260904210403 | 61 | 254 | 11.0 | 19.0 | 0.00 | 0.29 | 0.28 | 76 | |
| 20260904210303 | 61 | 255 | 11.0 | 19.0 | 0.00 | 0.29 | 0.28 | 76 | |
| 20260904210224 | 61 | 255 | 11.0 | 18.0 | 0.00 | 0.29 | 0.28 | 76 | |
| 20260904210024 | 61 | 254 | 12.0 | 18.0 | 0.00 | 0.29 | 0.28 | 76 | |
| 20260904205903 | 61 | 255 | 12.0 | 18.0 | 0.00 | 0.29 | 0.28 | 75 | |
| 20260904205803 | 61 | 255 | 12.0 | 18.0 | 0.00 | 0.29 | 0.28 | 76 | |
| 20260904205703 | 61 | 254 | 12.0 | 18.0 | 0.00 | 0.29 | 0.28 | 75 | |
| 20260904205603 | 61 | 254 | 12.0 | 18.0 | 0.00 | 0.29 | 0.28 | 75 | |
| 20260904205503 | 61 | 255 | 12.0 | 20.0 | 0.00 | 0.29 | 0.28 | 75 | |
| 20260904205403 | 61 | 255 | 12.0 | 20.0 | 0.00 | 0.29 | 0.28 | 75 | |
| 20260904205305 | 61 | 254 | 12.0 | 20.0 | 0.00 | 0.29 | 0.28 | 75 | |
| 20260904205203 | 61 | 255 | 12.0 | 20.0 | 0.00 | 0.29 | 0.28 | 75 | |
| 20260904205103 | 61 | 255 | 12.0 | 20.0 | 0.00 | 0.29 | 0.28 | 75 | |
| 20260904205003 | 61 | 255 | 12.0 | 20.0 | 0.00 | 0.29 | 0.28 | 75 | |
| 20260904204903 | 61 | 254 | 12.0 | 20.0 | 0.00 | 0.29 | 0.28 | 75 | |
| 20260904204803 | 61 | 254 | 12.0 | 20.0 | 0.00 | 0.29 | 0.28 | 75 | |
| 20260904204703 | 61 | 255 | 11.0 | 20.0 | 0.00 | 0.29 | 0.28 | 75 | |
| 20260904204603 | 61 | 255 | 12.0 | 20.0 | 0.00 | 0.29 | 0.28 | 75 | |
| 20260904204503 | 61 | 254 | 12.0 | 22.0 | 0.00 | 0.29 | 0.28 | 74 | |
| 20260904204403 | 61 | 253 | 12.0 | 22.0 | 0.00 | 0.29 | 0.28 | 74 | |
| 20260904204324 | 61 | 253 | 12.0 | 22.0 | 0.00 | 0.29 | 0.28 | 74 | |
| 20260904204225 | 61 | 252 | 12.0 | 22.0 | 0.00 | 0.29 | 0.28 | 74 | |
| 20260904204103 | 61 | 252 | 12.0 | 22.0 | 0.00 | 0.29 | 0.28 | 74 | |
| 20260904204003 | 61 | 251 | 12.0 | 22.0 | 0.00 | 0.29 | 0.28 | 74 | |
| 20260904203903 | 61 | 251 | 12.0 | 22.0 | 0.00 | 0.29 | 0.28 | 75 | |
| 20260904203804 | 61 | 250 | 12.0 | 22.0 | 0.00 | 0.29 | 0.28 | 75 | |
| 20260904203703 | 61 | 250 | 12.0 | 22.0 | 0.00 | 0.29 | 0.28 | 74 | |
| 20260904203603 | 61 | 250 | 11.0 | 22.0 | 0.00 | 0.29 | 0.28 | 75 | |
| 20260904203503 | 61 | 251 | 11.0 | 20.0 | 0.00 | 0.29 | 0.28 | 75 | |
| 20260904203424 | 61 | 252 | 11.0 | 20.0 | 0.00 | 0.29 | 0.28 | 75 | |
| 20260904203303 | 61 | 252 | 10.0 | 19.0 | 0.00 | 0.29 | 0.28 | 75 | |
| 20260904203203 | 61 | 253 | 10.0 | 16.0 | 0.00 | 0.29 | 0.28 | 75 | |
| 20260904203103 | 61 | 253 | 10.0 | 16.0 | 0.00 | 0.29 | 0.28 | 75 | |
| 20260904203003 | 61 | 254 | 10.0 | 16.0 | 0.00 | 0.29 | 0.28 | 75 | |
| 20260904202924 | 61 | 253 | 10.0 | 16.0 | 0.00 | 0.29 | 0.28 | 75 | |
| 20260904202803 | 61 | 255 | 10.0 | 19.0 | 0.00 | 0.29 | 0.28 | 75 | |
| 20260904202703 | 61 | 255 | 10.0 | 19.0 | 0.00 | 0.29 | 0.28 | 75 | |
| 20260904202603 | 61 | 255 | 10.0 | 19.0 | 0.00 | 0.29 | 0.28 | 75 | |
| 20260904202503 | 61 | 255 | 10.0 | 19.0 | 0.00 | 0.29 | 0.28 | 75 | |
| 20260904202424 | 61 | 254 | 10.0 | 19.0 | 0.00 | 0.29 | 0.28 | 75 | |
| 20260904202305 | 61 | 253 | 10.0 | 19.0 | 0.00 | 0.29 | 0.28 | 75 | |
| 20260904202203 | 61 | 253 | 10.0 | 19.0 | 0.00 | 0.29 | 0.28 | 75 | |
| 20260904202124 | 61 | 253 | 10.0 | 19.0 | 0.00 | 0.29 | 0.28 | 75 | |
| 20260904202003 | 61 | 253 | 9.0 | 19.0 | 0.00 | 0.29 | 0.28 | 75 | |
| 20260904201902 | 61 | 255 | 9.0 | 19.0 | 0.00 | 0.29 | 0.28 | 75 | |
| 20260904201802 | 61 | 254 | 9.0 | 15.0 | 0.00 | 0.29 | 0.28 | 76 | |
| 20260904201702 | 61 | 254 | 8.0 | 15.0 | 0.00 | 0.29 | 0.28 | 76 | |
| 20260904201623 | 61 | 253 | 8.0 | 15.0 | 0.00 | 0.29 | 0.28 | 76 | |
| 20260904201502 | 61 | 254 | 8.0 | 14.0 | 0.00 | 0.29 | 0.28 | 76 | |
| 20260904201402 | 61 | 255 | 8.0 | 14.0 | 0.00 | 0.29 | 0.28 | 75 | |
| 20260904201303 | 61 | 255 | 7.0 | 14.0 | 0.00 | 0.29 | 0.28 | 76 | |
| 20260904201202 | 61 | 255 | 7.0 | 13.0 | 0.00 | 0.29 | 0.28 | 76 | |
| 20260904201123 | 61 | 255 | 7.0 | 13.0 | 0.00 | 0.29 | 0.28 | 76 | |
| 20260904201002 | 61 | 255 | 7.0 | 13.0 | 0.00 | 0.29 | 0.28 | 75 | |
| 20260904200902 | 61 | 253 | 8.0 | 13.0 | 0.00 | 0.29 | 0.28 | 75 | |
| 20260904200802 | 61 | 252 | 7.0 | 13.0 | 0.00 | 0.29 | 0.28 | 75 | |
| 20260904200702 | 61 | 252 | 7.0 | 11.0 | 0.00 | 0.29 | 0.28 | 75 | |
| 20260904200602 | 61 | 251 | 8.0 | 12.0 | 0.00 | 0.29 | 0.28 | 75 | |
| 20260904200503 | 61 | 249 | 7.0 | 12.0 | 0.00 | 0.29 | 0.28 | 75 | |
| 20260904200402 | 61 | 247 | 8.0 | 12.0 | 0.00 | 0.29 | 0.28 | 75 | |
| 20260904200323 | 61 | 246 | 8.0 | 12.0 | 0.00 | 0.29 | 0.28 | 75 | |
| 20260904200202 | 61 | 246 | 8.0 | 12.0 | 0.00 | 0.29 | 0.28 | 75 | |
| 20260904200002 | 61 | 242 | 8.0 | 12.0 | 0.00 | 0.29 | 0.28 | 75 | |
| 20260904195902 | 61 | 241 | 8.0 | 12.0 | 0.00 | 0.29 | 0.28 | 75 | |
| 20260904195802 | 61 | 241 | 8.0 | 12.0 | 0.00 | 0.29 | 0.28 | 75 | |
| 20260904195702 | 61 | 241 | 8.0 | 14.0 | 0.00 | 0.29 | 0.28 | 75 | |
| 20260904195602 | 61 | 240 | 9.0 | 14.0 | 0.00 | 0.29 | 0.28 | 75 | |
| 20260904195502 | 61 | 241 | 9.0 | 14.0 | 0.00 | 0.29 | 0.28 | 75 | |
| 20260904195423 | 61 | 241 | 9.0 | 14.0 | 0.00 | 0.29 | 0.28 | 75 | |
| 20260904195305 | 61 | 242 | 9.0 | 14.0 | 0.00 | 0.29 | 0.28 | 75 | |
| 20260904195202 | 61 | 242 | 9.0 | 14.0 | 0.00 | 0.29 | 0.28 | 75 | |
| 20260904195102 | 61 | 243 | 9.0 | 14.0 | 0.00 | 0.29 | 0.28 | 75 | |
| 20260904195002 | 61 | 244 | 9.0 | 14.0 | 0.00 | 0.29 | 0.28 | 75 | |
| 20260904194923 | 61 | 244 | 9.0 | 14.0 | 0.00 | 0.29 | 0.28 | 75 | |
| 20260904194802 | 61 | 246 | 9.0 | 14.0 | 0.00 | 0.29 | 0.28 | 75 | |
| 20260904194703 | 61 | 246 | 9.0 | 12.0 | 0.00 | 0.29 | 0.28 | 75 | |
| 20260904194602 | 61 | 247 | 9.0 | 12.0 | 0.00 | 0.29 | 0.28 | 75 | |
| 20260904194502 | 61 | 248 | 9.0 | 15.0 | 0.00 | 0.29 | 0.28 | 75 | |
| 20260904194423 | 61 | 249 | 9.0 | 15.0 | 0.00 | 0.29 | 0.28 | 75 | |
| 20260904194323 | 61 | 248 | 9.0 | 15.0 | 0.00 | 0.29 | 0.28 | 75 | |
| 20260904194202 | 61 | 249 | 10.0 | 15.0 | 0.00 | 0.29 | 0.28 | 74 | |
| 20260904194102 | 61 | 250 | 9.0 | 15.0 | 0.00 | 0.29 | 0.28 | 74 | |
| 20260904194002 | 61 | 250 | 10.0 | 15.0 | 0.00 | 0.29 | 0.28 | 74 | |
| 20260904193902 | 61 | 250 | 10.0 | 15.0 | 0.00 | 0.29 | 0.28 | 74 | |
| 20260904193823 | 61 | 251 | 10.0 | 15.0 | 0.00 | 0.29 | 0.28 | 74 | |
| 20260904193724 | 61 | 251 | 10.0 | 16.0 | 0.00 | 0.29 | 0.28 | 74 | |
| 20260904193602 | 61 | 252 | 10.0 | 16.0 | 0.00 | 0.29 | 0.28 | 74 | |
| 20260904193502 | 61 | 252 | 9.0 | 16.0 | 0.00 | 0.29 | 0.28 | 74 | |
| 20260904193402 | 61 | 253 | 10.0 | 16.0 | 0.00 | 0.29 | 0.28 | 74 | |
| 20260904193303 | 61 | 253 | 10.0 | 16.0 | 0.00 | 0.29 | 0.28 | 74 | |
| 20260904193202 | 61 | 254 | 10.0 | 16.0 | 0.00 | 0.29 | 0.28 | 74 | |
| 20260904193123 | 61 | 254 | 10.0 | 16.0 | 0.00 | 0.29 | 0.28 | 74 | |
| 20260904193003 | 61 | 254 | 10.0 | 16.0 | 0.00 | 0.29 | 0.28 | 74 | |
| 20260904192923 | 61 | 254 | 10.0 | 16.0 | 0.00 | 0.29 | 0.28 | 74 | |
| 20260904192823 | 61 | 254 | 10.0 | 16.0 | 0.00 | 0.29 | 0.28 | 74 | |
| 20260904192702 | 61 | 256 | 10.0 | 14.0 | 0.00 | 0.29 | 0.28 | 74 | |
| 20260904192623 | 61 | 256 | 10.0 | 14.0 | 0.00 | 0.29 | 0.28 | 74 | |
| 20260904192502 | 61 | 256 | 10.0 | 14.0 | 0.00 | 0.29 | 0.28 | 74 | |
| 20260904192402 | 61 | 257 | 10.0 | 14.0 | 0.00 | 0.29 | 0.28 | 74 | |
| 20260904192306 | 61 | 257 | 9.0 | 14.0 | 0.00 | 0.29 | 0.28 | 74 | |
| 20260904192223 | 61 | 256 | 9.0 | 14.0 | 0.00 | 0.29 | 0.28 | 74 | |
| 20260904192102 | 61 | 257 | 9.0 | 14.0 | 0.00 | 0.29 | 0.28 | 74 | |
| 20260904192023 | 61 | 257 | 9.0 | 14.0 | 0.00 | 0.29 | 0.28 | 74 | |
| 20260904191903 | 61 | 259 | 9.0 | 14.0 | 0.00 | 0.29 | 0.28 | 74 | |
| 20260904191802 | 61 | 260 | 10.0 | 15.0 | 0.00 | 0.29 | 0.28 | 74 | |
| 20260904191702 | 61 | 259 | 10.0 | 15.0 | 0.00 | 0.29 | 0.28 | 73 | |
| 20260904191602 | 61 | 260 | 10.0 | 15.0 | 0.00 | 0.29 | 0.28 | 73 | |
| 20260904191502 | 61 | 261 | 10.0 | 19.0 | 0.00 | 0.29 | 0.28 | 73 | |
| 20260904191402 | 61 | 260 | 10.0 | 19.0 | 0.00 | 0.29 | 0.28 | 73 | |
| 20260904191302 | 61 | 261 | 10.0 | 19.0 | 0.00 | 0.29 | 0.28 | 73 | |
| 20260904191202 | 61 | 262 | 11.0 | 19.0 | 0.00 | 0.29 | 0.28 | 73 | |
| 20260904191102 | 61 | 263 | 11.0 | 19.0 | 0.00 | 0.29 | 0.28 | 73 | |
| 20260904191023 | 61 | 264 | 11.0 | 19.0 | 0.00 | 0.29 | 0.28 | 73 | |
| 20260904190902 | 61 | 265 | 11.0 | 19.0 | 0.00 | 0.29 | 0.28 | 73 | |
| 20260904190802 | 61 | 266 | 11.0 | 19.0 | 0.00 | 0.29 | 0.28 | 73 | |
| 20260904190702 | 61 | 267 | 11.0 | 19.0 | 0.00 | 0.29 | 0.28 | 73 | |
| 20260904190602 | 61 | 267 | 11.0 | 19.0 | 0.00 | 0.29 | 0.28 | 73 | |
| 20260904190502 | 61 | 268 | 11.0 | 16.0 | 0.00 | 0.29 | 0.28 | 73 | |
| 20260904190423 | 61 | 268 | 11.0 | 16.0 | 0.00 | 0.29 | 0.28 | 73 | |
| 20260904190302 | 61 | 269 | 11.0 | 16.0 | 0.00 | 0.29 | 0.28 | 73 | |
| 20260904190202 | 61 | 270 | 11.0 | 16.0 | 0.00 | 0.29 | 0.28 | 73 | |
| 20260904190002 | 61 | 270 | 11.0 | 18.0 | 0.00 | 0.29 | 0.28 | 73 | |
| 20260904185902 | 61 | 269 | 11.0 | 18.0 | 0.00 | 0.29 | 0.28 | 73 | |
| 20260904185802 | 61 | 269 | 11.0 | 18.0 | 0.00 | 0.29 | 0.28 | 73 | |
| 20260904185702 | 61 | 268 | 11.0 | 18.0 | 0.00 | 0.29 | 0.28 | 73 | |
| 20260904185602 | 61 | 268 | 11.0 | 18.0 | 0.00 | 0.29 | 0.28 | 73 | |
| 20260904185523 | 61 | 267 | 11.0 | 18.0 | 0.00 | 0.29 | 0.28 | 73 | |
| 20260904185402 | 61 | 267 | 11.0 | 19.0 | 0.00 | 0.29 | 0.28 | 73 | |
| 20260904185306 | 61 | 266 | 11.0 | 19.0 | 0.00 | 0.29 | 0.28 | 73 | |
| 20260904185202 | 61 | 266 | 11.0 | 19.0 | 0.00 | 0.29 | 0.28 | 73 | |
| 20260904185102 | 61 | 266 | 12.0 | 19.0 | 0.00 | 0.29 | 0.28 | 73 | |
| 20260904185023 | 61 | 266 | 12.0 | 19.0 | 0.00 | 0.29 | 0.28 | 73 | |
| 20260904184902 | 61 | 266 | 12.0 | 19.0 | 0.00 | 0.29 | 0.28 | 73 | |
| 20260904184803 | 61 | 265 | 12.0 | 19.0 | 0.00 | 0.29 | 0.28 | 73 | |
| 20260904184703 | 61 | 265 | 12.0 | 19.0 | 0.00 | 0.29 | 0.28 | 73 | |
| 20260904184602 | 61 | 265 | 12.0 | 19.0 | 0.00 | 0.29 | 0.28 | 73 | |
| 20260904184502 | 61 | 266 | 12.0 | 19.0 | 0.00 | 0.29 | 0.28 | 73 | |
| 20260904184402 | 61 | 265 | 12.0 | 19.0 | 0.00 | 0.29 | 0.28 | 73 | |
| 20260904184302 | 61 | 265 | 12.0 | 19.0 | 0.00 | 0.29 | 0.28 | 73 | |
| 20260904184223 | 61 | 266 | 12.0 | 19.0 | 0.00 | 0.29 | 0.28 | 73 | |
| 20260904184102 | 61 | 266 | 13.0 | 21.0 | 0.00 | 0.29 | 0.28 | 72 | |
| 20260904184002 | 61 | 266 | 13.0 | 22.0 | 0.00 | 0.29 | 0.28 | 72 | |
| 20260904183902 | 61 | 266 | 13.0 | 22.0 | 0.00 | 0.29 | 0.28 | 72 | |
| 20260904183802 | 61 | 266 | 13.0 | 22.0 | 0.00 | 0.29 | 0.28 | 72 | |
| 20260904183702 | 62 | 266 | 14.0 | 22.0 | 0.00 | 0.29 | 0.28 | 72 | |
| 20260904183623 | 62 | 266 | 14.0 | 22.0 | 0.00 | 0.29 | 0.28 | 72 | |
| 20260904183502 | 62 | 265 | 13.0 | 22.0 | 0.00 | 0.29 | 0.28 | 72 | |
| 20260904183402 | 62 | 266 | 13.0 | 22.0 | 0.00 | 0.29 | 0.28 | 72 | |
| 20260904183302 | 62 | 267 | 13.0 | 22.0 | 0.00 | 0.29 | 0.28 | 72 | |
| 20260904183202 | 62 | 267 | 13.0 | 22.0 | 0.00 | 0.29 | 0.28 | 72 | |
| 20260904183102 | 62 | 268 | 13.0 | 22.0 | 0.00 | 0.29 | 0.28 | 72 | |
| 20260904183002 | 62 | 268 | 13.0 | 21.0 | 0.00 | 0.29 | 0.28 | 72 | |
| 20260904182902 | 62 | 269 | 13.0 | 21.0 | 0.00 | 0.29 | 0.28 | 72 | |
| 20260904182802 | 62 | 271 | 13.0 | 21.0 | 0.00 | 0.29 | 0.28 | 71 | |
| 20260904182702 | 62 | 272 | 13.0 | 21.0 | 0.00 | 0.29 | 0.28 | 71 | |
| 20260904182602 | 62 | 274 | 13.0 | 21.0 | 0.00 | 0.29 | 0.28 | 71 | |
| 20260904182502 | 62 | 274 | 13.0 | 21.0 | 0.00 | 0.29 | 0.28 | 71 | |
| 20260904182402 | 62 | 274 | 13.0 | 21.0 | 0.00 | 0.29 | 0.28 | 71 | |
| 20260904182306 | 62 | 275 | 13.0 | 21.0 | 0.00 | 0.29 | 0.28 | 71 | |
| 20260904182223 | 62 | 275 | 13.0 | 21.0 | 0.00 | 0.29 | 0.28 | 71 | |
| 20260904182102 | 62 | 276 | 13.0 | 21.0 | 0.00 | 0.29 | 0.28 | 71 | |
| 20260904182023 | 62 | 276 | 13.0 | 21.0 | 0.00 | 0.29 | 0.28 | 71 | |
| 20260904181902 | 62 | 277 | 13.0 | 21.0 | 0.00 | 0.29 | 0.28 | 70 | |
| 20260904181802 | 62 | 277 | 13.0 | 21.0 | 0.00 | 0.29 | 0.28 | 70 | |
| 20260904181702 | 62 | 276 | 13.0 | 21.0 | 0.00 | 0.29 | 0.28 | 70 | |
| 20260904181623 | 62 | 276 | 13.0 | 21.0 | 0.00 | 0.29 | 0.28 | 70 | |
| 20260904181502 | 62 | 276 | 12.0 | 21.0 | 0.00 | 0.29 | 0.28 | 70 | |
| 20260904181402 | 62 | 277 | 12.0 | 21.0 | 0.00 | 0.29 | 0.28 | 70 | |
| 20260904181302 | 62 | 276 | 12.0 | 19.0 | 0.00 | 0.29 | 0.28 | 70 | |
| 20260904181224 | 62 | 276 | 12.0 | 19.0 | 0.00 | 0.29 | 0.28 | 70 | |
| 20260904181102 | 62 | 275 | 12.0 | 20.0 | 0.00 | 0.29 | 0.28 | 70 | |
| 20260904181023 | 63 | 276 | 12.0 | 20.0 | 0.00 | 0.29 | 0.28 | 70 | |
| 20260904180923 | 63 | 275 | 13.0 | 20.0 | 0.00 | 0.29 | 0.28 | 70 | |
| 20260904180802 | 63 | 275 | 13.0 | 20.0 | 0.00 | 0.29 | 0.28 | 70 | |
| 20260904180702 | 63 | 275 | 13.0 | 20.0 | 0.00 | 0.29 | 0.28 | 70 | |
| 20260904180602 | 63 | 274 | 13.0 | 20.0 | 0.00 | 0.29 | 0.28 | 70 | |
| 20260904180502 | 63 | 275 | 13.0 | 22.0 | 0.00 | 0.29 | 0.28 | 70 | |
| 20260904180402 | 63 | 275 | 13.0 | 22.0 | 0.00 | 0.29 | 0.28 | 70 | |
| 20260904180302 | 63 | 276 | 13.0 | 22.0 | 0.00 | 0.29 | 0.28 | 70 | |
| 20260904180223 | 63 | 276 | 13.0 | 22.0 | 0.00 | 0.29 | 0.28 | 70 | |
| 20260904180123 | 63 | 276 | 13.0 | 22.0 | 0.00 | 0.29 | 0.28 | 70 | |
| 20260904180002 | 63 | 275 | 14.0 | 22.0 | 0.00 | 0.29 | 0.28 | 70 | |
| 20260904175902 | 63 | 275 | 14.0 | 22.0 | 0.00 | 0.29 | 0.28 | 70 | |
| 20260904175823 | 63 | 276 | 14.0 | 22.0 | 0.00 | 0.29 | 0.28 | 70 | |
| 20260904175702 | 63 | 275 | 13.0 | 24.0 | 0.00 | 0.29 | 0.28 | 70 | |
| 20260904175602 | 63 | 276 | 13.0 | 24.0 | 0.00 | 0.29 | 0.28 | 70 | |
| 20260904175504 | 63 | 276 | 13.0 | 24.0 | 0.00 | 0.29 | 0.28 | 70 | |
| 20260904175423 | 63 | 276 | 13.0 | 24.0 | 0.00 | 0.29 | 0.28 | 70 | |
| 20260904175305 | 63 | 275 | 13.0 | 24.0 | 0.00 | 0.29 | 0.28 | 70 | |
| 20260904175203 | 63 | 275 | 12.0 | 24.0 | 0.00 | 0.29 | 0.28 | 71 | |
| 20260904175102 | 63 | 275 | 12.0 | 24.0 | 0.00 | 0.29 | 0.28 | 71 | |
| 20260904175002 | 63 | 275 | 12.0 | 24.0 | 0.00 | 0.29 | 0.28 | 71 | |
| 20260904174902 | 63 | 275 | 12.0 | 24.0 | 0.00 | 0.29 | 0.28 | 71 | |
| 20260904174823 | 63 | 275 | 12.0 | 24.0 | 0.00 | 0.29 | 0.28 | 71 | |
| 20260904174702 | 63 | 275 | 12.0 | 21.0 | 0.00 | 0.29 | 0.28 | 71 | |
| 20260904174602 | 63 | 275 | 12.0 | 21.0 | 0.00 | 0.29 | 0.28 | 71 | |
| 20260904174502 | 63 | 274 | 12.0 | 21.0 | 0.00 | 0.29 | 0.28 | 71 | |
| 20260904174402 | 63 | 273 | 12.0 | 21.0 | 0.00 | 0.29 | 0.28 | 71 | |
| 20260904174302 | 63 | 273 | 12.0 | 21.0 | 0.00 | 0.29 | 0.28 | 71 | |
| 20260904174202 | 63 | 273 | 12.0 | 21.0 | 0.00 | 0.29 | 0.28 | 71 | |
| 20260904174102 | 63 | 272 | 12.0 | 21.0 | 0.00 | 0.29 | 0.28 | 71 | |
| 20260904174023 | 63 | 272 | 12.0 | 21.0 | 0.00 | 0.29 | 0.28 | 71 | |
| 20260904173902 | 63 | 271 | 12.0 | 20.0 | 0.00 | 0.29 | 0.28 | 71 | |
| 20260904173823 | 63 | 270 | 12.0 | 20.0 | 0.00 | 0.29 | 0.28 | 71 | |
| 20260904173702 | 63 | 270 | 13.0 | 21.0 | 0.00 | 0.29 | 0.28 | 70 | |
| 20260904173623 | 63 | 269 | 13.0 | 21.0 | 0.00 | 0.29 | 0.28 | 70 | |
| 20260904173502 | 63 | 269 | 13.0 | 21.0 | 0.00 | 0.29 | 0.28 | 70 | |
| 20260904173402 | 63 | 270 | 13.0 | 21.0 | 0.00 | 0.29 | 0.28 | 70 | |
| 20260904173302 | 63 | 271 | 13.0 | 21.0 | 0.00 | 0.29 | 0.28 | 70 | |
| 20260904173202 | 64 | 271 | 13.0 | 21.0 | 0.00 | 0.29 | 0.28 | 70 | |
| 20260904173102 | 63 | 271 | 12.0 | 21.0 | 0.00 | 0.29 | 0.28 | 70 | |
| 20260904173023 | 64 | 271 | 12.0 | 21.0 | 0.00 | 0.29 | 0.28 | 70 | |
| 20260904172902 | 64 | 274 | 12.0 | 21.0 | 0.00 | 0.29 | 0.28 | 70 | |
| 20260904172802 | 64 | 276 | 12.0 | 20.0 | 0.00 | 0.29 | 0.28 | 70 | |
| 20260904172702 | 64 | 277 | 12.0 | 20.0 | 0.00 | 0.29 | 0.28 | 70 | |
| 20260904172602 | 64 | 280 | 13.0 | 21.0 | 0.00 | 0.29 | 0.28 | 70 | |
| 20260904172502 | 64 | 281 | 13.0 | 21.0 | 0.00 | 0.29 | 0.28 | 69 | |
| 20260904172402 | 64 | 284 | 13.0 | 21.0 | 0.00 | 0.29 | 0.28 | 70 | |
| 20260904172305 | 64 | 285 | 13.0 | 21.0 | 0.00 | 0.29 | 0.28 | 70 | |
| 20260904172223 | 64 | 285 | 13.0 | 21.0 | 0.00 | 0.29 | 0.28 | 70 | |
| 20260904172102 | 64 | 287 | 13.0 | 21.0 | 0.00 | 0.29 | 0.28 | 70 | |
| 20260904172002 | 64 | 288 | 13.0 | 21.0 | 0.00 | 0.29 | 0.28 | 70 | |
| 20260904171923 | 64 | 289 | 13.0 | 21.0 | 0.00 | 0.29 | 0.28 | 70 | |
| 20260904171802 | 64 | 288 | 13.0 | 21.0 | 0.00 | 0.29 | 0.28 | 70 | |
| 20260904171702 | 64 | 289 | 13.0 | 21.0 | 0.00 | 0.29 | 0.28 | 70 | |
| 20260904171602 | 64 | 288 | 13.0 | 19.0 | 0.00 | 0.29 | 0.28 | 70 | |
| 20260904171502 | 64 | 288 | 13.0 | 20.0 | 0.00 | 0.29 | 0.28 | 71 | |
| 20260904171423 | 64 | 288 | 13.0 | 22.0 | 0.00 | 0.29 | 0.28 | 71 | |
| 20260904171303 | 64 | 288 | 13.0 | 22.0 | 0.00 | 0.29 | 0.28 | 70 | |
| 20260904171202 | 64 | 289 | 14.0 | 22.0 | 0.00 | 0.29 | 0.28 | 70 | |
| 20260904171102 | 64 | 289 | 14.0 | 22.0 | 0.00 | 0.29 | 0.28 | 70 | |
| 20260904171002 | 64 | 288 | 14.0 | 22.0 | 0.00 | 0.29 | 0.28 | 70 | |
| 20260904170902 | 64 | 288 | 14.0 | 22.0 | 0.00 | 0.29 | 0.28 | 69 | |
| 20260904170802 | 64 | 287 | 14.0 | 22.0 | 0.00 | 0.29 | 0.28 | 69 | |
| 20260904170723 | 64 | 286 | 14.0 | 22.0 | 0.00 | 0.29 | 0.28 | 69 | |
| 20260904170602 | 64 | 286 | 14.0 | 22.0 | 0.00 | 0.29 | 0.28 | 69 | |
| 20260904170502 | 64 | 286 | 14.0 | 22.0 | 0.00 | 0.29 | 0.28 | 69 | |
| 20260904170402 | 64 | 285 | 14.0 | 21.0 | 0.00 | 0.29 | 0.28 | 68 | |
| 20260904170302 | 64 | 284 | 14.0 | 21.0 | 0.00 | 0.29 | 0.28 | 69 | |
| 20260904170202 | 64 | 283 | 14.0 | 21.0 | 0.00 | 0.29 | 0.28 | 68 | |
| 20260904170002 | 64 | 283 | 14.0 | 24.0 | 0.00 | 0.29 | 0.28 | 69 | |
| 20260904165902 | 64 | 282 | 14.0 | 24.0 | 0.00 | 0.29 | 0.28 | 68 | |
| 20260904165802 | 64 | 282 | 15.0 | 24.0 | 0.00 | 0.29 | 0.28 | 67 | |
| 20260904165723 | 64 | 283 | 15.0 | 24.0 | 0.00 | 0.29 | 0.28 | 67 | |
| 20260904165602 | 64 | 281 | 15.0 | 24.0 | 0.00 | 0.29 | 0.28 | 67 | |
| 20260904165502 | 64 | 279 | 15.0 | 24.0 | 0.00 | 0.29 | 0.28 | 68 | |
| 20260904165404 | 64 | 280 | 15.0 | 24.0 | 0.00 | 0.29 | 0.28 | 68 | |
| 20260904165324 | 64 | 280 | 15.0 | 24.0 | 0.00 | 0.29 | 0.28 | 68 | |
| 20260904165202 | 64 | 278 | 16.0 | 26.0 | 0.00 | 0.29 | 0.28 | 67 | |
| 20260904165103 | 64 | 276 | 16.0 | 26.0 | 0.00 | 0.29 | 0.28 | 67 | |
| 20260904165023 | 64 | 276 | 16.0 | 26.0 | 0.00 | 0.29 | 0.28 | 67 | |
| 20260904164902 | 64 | 275 | 16.0 | 26.0 | 0.00 | 0.29 | 0.28 | 67 | |
| 20260904164802 | 64 | 274 | 16.0 | 26.0 | 0.00 | 0.29 | 0.28 | 67 | |
| 20260904164702 | 64 | 273 | 16.0 | 26.0 | 0.00 | 0.29 | 0.28 | 67 | |
| 20260904164602 | 64 | 273 | 16.0 | 26.0 | 0.00 | 0.29 | 0.28 | 67 | |
| 20260904164502 | 64 | 274 | 16.0 | 26.0 | 0.00 | 0.29 | 0.28 | 66 | |
| 20260904164402 | 64 | 273 | 16.0 | 26.0 | 0.00 | 0.29 | 0.28 | 66 | |
| 20260904164302 | 64 | 272 | 16.0 | 26.0 | 0.00 | 0.29 | 0.28 | 67 | |
| 20260904164202 | 64 | 273 | 15.0 | 25.0 | 0.00 | 0.29 | 0.28 | 67 | |
| 20260904164123 | 64 | 275 | 15.0 | 24.0 | 0.00 | 0.29 | 0.28 | 67 | |
| 20260904164002 | 64 | 276 | 15.0 | 24.0 | 0.00 | 0.29 | 0.28 | 67 | |
| 20260904163923 | 64 | 277 | 15.0 | 24.0 | 0.00 | 0.29 | 0.28 | 67 | |
| 20260904163802 | 64 | 277 | 15.0 | 24.0 | 0.00 | 0.29 | 0.28 | 67 | |
| 20260904163702 | 64 | 278 | 15.0 | 23.0 | 0.00 | 0.29 | 0.28 | 66 | |
| 20260904163602 | 64 | 279 | 16.0 | 23.0 | 0.00 | 0.29 | 0.28 | 66 | |
| 20260904163502 | 64 | 279 | 16.0 | 25.0 | 0.00 | 0.29 | 0.28 | 66 | |
| 20260904163402 | 65 | 279 | 16.0 | 25.0 | 0.00 | 0.29 | 0.28 | 66 | |
| 20260904163302 | 65 | 279 | 16.0 | 27.0 | 0.00 | 0.29 | 0.28 | 66 | |
| 20260904163202 | 65 | 279 | 17.0 | 27.0 | 0.00 | 0.29 | 0.28 | 66 | |
| 20260904163102 | 65 | 279 | 17.0 | 27.0 | 0.00 | 0.29 | 0.28 | 67 | |
| 20260904163002 | 65 | 279 | 17.0 | 27.0 | 0.00 | 0.29 | 0.28 | 66 | |
| 20260904162902 | 65 | 279 | 18.0 | 27.0 | 0.00 | 0.29 | 0.28 | 66 | |
| 20260904162802 | 65 | 279 | 18.0 | 27.0 | 0.00 | 0.29 | 0.28 | 66 | |
| 20260904162702 | 65 | 279 | 18.0 | 27.0 | 0.00 | 0.29 | 0.28 | 65 | |
| 20260904162602 | 65 | 279 | 18.0 | 27.0 | 0.00 | 0.29 | 0.28 | 65 | |
| 20260904162502 | 65 | 278 | 17.0 | 27.0 | 0.00 | 0.29 | 0.28 | 65 | |
| 20260904162402 | 65 | 279 | 17.0 | 27.0 | 0.00 | 0.29 | 0.28 | 66 | |
| 20260904162305 | 65 | 281 | 17.0 | 26.0 | 0.00 | 0.29 | 0.28 | 66 | |
| 20260904162202 | 65 | 280 | 16.0 | 26.0 | 0.00 | 0.29 | 0.28 | 66 | |
| 20260904162102 | 65 | 278 | 16.0 | 26.0 | 0.00 | 0.29 | 0.28 | 66 | |
| 20260904162002 | 65 | 277 | 16.0 | 26.0 | 0.00 | 0.29 | 0.28 | 67 | |
| 20260904161923 | 65 | 276 | 16.0 | 26.0 | 0.00 | 0.29 | 0.28 | 67 | |
| 20260904161823 | 65 | 275 | 16.0 | 26.0 | 0.00 | 0.29 | 0.28 | 66 | |
| 20260904161702 | 65 | 274 | 15.0 | 24.0 | 0.00 | 0.29 | 0.28 | 66 | |
| 20260904161602 | 65 | 275 | 16.0 | 26.0 | 0.00 | 0.29 | 0.28 | 67 | |
| 20260904161502 | 65 | 277 | 16.0 | 26.0 | 0.00 | 0.29 | 0.28 | 67 | |
| 20260904161403 | 65 | 278 | 16.0 | 26.0 | 0.00 | 0.29 | 0.28 | 67 | |
| 20260904161323 | 65 | 276 | 16.0 | 26.0 | 0.00 | 0.29 | 0.28 | 67 | |
| 20260904161223 | 65 | 275 | 16.0 | 26.0 | 0.00 | 0.29 | 0.28 | 66 | |
| 20260904161102 | 64 | 278 | 17.0 | 28.0 | 0.00 | 0.29 | 0.28 | 67 | |
| 20260904161023 | 64 | 278 | 17.0 | 28.0 | 0.00 | 0.29 | 0.28 | 67 | |
| 20260904160902 | 64 | 280 | 17.0 | 28.0 | 0.00 | 0.29 | 0.28 | 67 | |
| 20260904160802 | 64 | 280 | 18.0 | 28.0 | 0.00 | 0.29 | 0.28 | 67 | |
| 20260904160702 | 64 | 281 | 18.0 | 28.0 | 0.00 | 0.29 | 0.28 | 67 | |
| 20260904160602 | 64 | 281 | 18.0 | 28.0 | 0.00 | 0.29 | 0.28 | 67 | |
| 20260904160502 | 64 | 281 | 18.0 | 28.0 | 0.00 | 0.29 | 0.28 | 68 | |
| 20260904160402 | 64 | 280 | 18.0 | 28.0 | 0.00 | 0.29 | 0.28 | 68 | |
| 20260904160302 | 64 | 281 | 18.0 | 28.0 | 0.00 | 0.29 | 0.28 | 67 | |
| 20260904160202 | 64 | 281 | 18.0 | 28.0 | 0.00 | 0.29 | 0.28 | 68 | |
| 20260904160002 | 64 | 281 | 17.0 | 26.0 | 0.00 | 0.29 | 0.28 | 67 | |
| 20260904155902 | 64 | 282 | 18.0 | 26.0 | 0.00 | 0.29 | 0.28 | 68 | |
| 20260904155802 | 64 | 283 | 18.0 | 27.0 | 0.00 | 0.29 | 0.28 | 68 | |
| 20260904155723 | 64 | 282 | 18.0 | 27.0 | 0.00 | 0.29 | 0.28 | 68 | |
| 20260904155602 | 64 | 283 | 17.0 | 27.0 | 0.00 | 0.29 | 0.28 | 68 | |
| 20260904155502 | 64 | 282 | 17.0 | 27.0 | 0.00 | 0.29 | 0.28 | 67 | |
| 20260904155402 | 64 | 282 | 17.0 | 27.0 | 0.00 | 0.29 | 0.28 | 67 | |
| 20260904155306 | 64 | 282 | 17.0 | 27.0 | 0.00 | 0.29 | 0.28 | 67 | |
| 20260904155202 | 64 | 281 | 17.0 | 27.0 | 0.00 | 0.29 | 0.28 | 67 | |
| 20260904155102 | 64 | 281 | 17.0 | 27.0 | 0.00 | 0.29 | 0.28 | 67 | |
| 20260904155002 | 64 | 281 | 17.0 | 27.0 | 0.00 | 0.29 | 0.28 | 66 | |
| 20260904154902 | 64 | 282 | 17.0 | 27.0 | 0.00 | 0.29 | 0.28 | 66 | |
| 20260904154802 | 64 | 282 | 17.0 | 27.0 | 0.00 | 0.29 | 0.28 | 67 | |
| 20260904154702 | 64 | 282 | 17.0 | 27.0 | 0.00 | 0.29 | 0.28 | 67 | |
| 20260904154602 | 64 | 282 | 17.0 | 27.0 | 0.00 | 0.29 | 0.28 | 66 | |
| 20260904154502 | 64 | 283 | 17.0 | 27.0 | 0.00 | 0.29 | 0.28 | 67 | |
| 20260904154402 | 64 | 283 | 17.0 | 27.0 | 0.00 | 0.29 | 0.28 | 66 | |
| 20260904154302 | 64 | 284 | 17.0 | 27.0 | 0.00 | 0.29 | 0.28 | 66 | |
| 20260904154202 | 64 | 286 | 17.0 | 27.0 | 0.00 | 0.29 | 0.28 | 67 | |
| 20260904154102 | 64 | 286 | 18.0 | 28.0 | 0.00 | 0.29 | 0.28 | 66 | |
| 20260904154023 | 64 | 287 | 18.0 | 28.0 | 0.00 | 0.29 | 0.28 | 66 | |
| 20260904153923 | 64 | 286 | 18.0 | 28.0 | 0.00 | 0.29 | 0.28 | 67 | |
| 20260904153802 | 64 | 285 | 19.0 | 28.0 | 0.00 | 0.29 | 0.28 | 66 | |
| 20260904153702 | 64 | 285 | 19.0 | 28.0 | 0.00 | 0.29 | 0.28 | 65 | |
| 20260904153602 | 64 | 286 | 18.0 | 28.0 | 0.00 | 0.29 | 0.28 | 65 | |
| 20260904153502 | 64 | 285 | 19.0 | 28.0 | 0.00 | 0.29 | 0.28 | 66 | |
| 20260904153402 | 64 | 285 | 19.0 | 28.0 | 0.00 | 0.29 | 0.28 | 66 | |
| 20260904153323 | 64 | 285 | 19.0 | 28.0 | 0.00 | 0.29 | 0.28 | 66 | |
| 20260904153202 | 64 | 285 | 20.0 | 28.0 | 0.00 | 0.29 | 0.28 | 64 | |
| 20260904153103 | 64 | 286 | 19.0 | 27.0 | 0.00 | 0.29 | 0.28 | 64 | |
| 20260904153002 | 64 | 286 | 20.0 | 27.0 | 0.00 | 0.29 | 0.28 | 64 | |
| 20260904152902 | 64 | 286 | 20.0 | 28.0 | 0.00 | 0.29 | 0.28 | 64 | |
| 20260904152802 | 64 | 286 | 20.0 | 28.0 | 0.00 | 0.29 | 0.28 | 64 | |
| 20260904152703 | 64 | 286 | 20.0 | 28.0 | 0.00 | 0.29 | 0.28 | 64 | |
| 20260904152603 | 64 | 286 | 20.0 | 28.0 | 0.00 | 0.29 | 0.28 | 63 | |
| 20260904152502 | 64 | 286 | 20.0 | 28.0 | 0.00 | 0.29 | 0.28 | 63 | |
| 20260904152423 | 64 | 287 | 20.0 | 28.0 | 0.00 | 0.29 | 0.28 | 63 | |
| 20260904152306 | 64 | 288 | 21.0 | 28.0 | 0.00 | 0.29 | 0.28 | 64 | |
| 20260904152202 | 64 | 287 | 21.0 | 29.0 | 0.00 | 0.29 | 0.28 | 64 | |
| 20260904152102 | 64 | 287 | 21.0 | 29.0 | 0.00 | 0.29 | 0.28 | 63 | |
| 20260904152023 | 64 | 288 | 21.0 | 31.0 | 0.00 | 0.29 | 0.28 | 63 | |
| 20260904151902 | 64 | 289 | 21.0 | 31.0 | 0.00 | 0.29 | 0.28 | 63 | |
| 20260904151823 | 64 | 290 | 21.0 | 31.0 | 0.00 | 0.29 | 0.28 | 63 | |
| 20260904151703 | 64 | 290 | 21.0 | 31.0 | 0.00 | 0.29 | 0.28 | 64 | |
| 20260904151602 | 64 | 291 | 21.0 | 31.0 | 0.00 | 0.29 | 0.28 | 64 | |
| 20260904151502 | 64 | 291 | 21.0 | 31.0 | 0.00 | 0.29 | 0.28 | 63 | |
| 20260904151402 | 64 | 292 | 21.0 | 31.0 | 0.00 | 0.29 | 0.28 | 63 | |
| 20260904151302 | 64 | 291 | 20.0 | 31.0 | 0.00 | 0.29 | 0.28 | 64 | |
| 20260904151202 | 64 | 292 | 19.0 | 31.0 | 0.00 | 0.29 | 0.28 | 64 | |
| 20260904151123 | 64 | 292 | 19.0 | 31.0 | 0.00 | 0.29 | 0.28 | 64 | |
| 20260904151002 | 64 | 291 | 19.0 | 28.0 | 0.00 | 0.29 | 0.28 | 65 | |
| 20260904150923 | 64 | 290 | 19.0 | 28.0 | 0.00 | 0.29 | 0.28 | 65 | |
| 20260904150802 | 64 | 289 | 18.0 | 28.0 | 0.00 | 0.29 | 0.28 | 65 | |
| 20260904150723 | 64 | 287 | 18.0 | 28.0 | 0.00 | 0.29 | 0.28 | 65 | |
| 20260904150602 | 64 | 287 | 17.0 | 28.0 | 0.00 | 0.29 | 0.28 | 65 | |
| 20260904150502 | 64 | 285 | 17.0 | 26.0 | 0.00 | 0.29 | 0.28 | 66 | |
| 20260904150402 | 64 | 285 | 17.0 | 26.0 | 0.00 | 0.29 | 0.28 | 66 | |
| 20260904150302 | 64 | 285 | 16.0 | 26.0 | 0.00 | 0.29 | 0.28 | 67 | |
| 20260904150204 | 64 | 285 | 16.0 | 26.0 | 0.00 | 0.29 | 0.28 | 67 | |
| 20260904150002 | 64 | 281 | 14.0 | 26.0 | 0.00 | 0.29 | 0.28 | 67 | |
| 20260904145902 | 64 | 280 | 14.0 | 26.0 | 0.00 | 0.29 | 0.28 | 67 | |
| 20260904145802 | 64 | 281 | 13.0 | 26.0 | 0.00 | 0.29 | 0.28 | 68 | |
| 20260904145702 | 64 | 281 | 13.0 | 22.0 | 0.00 | 0.29 | 0.28 | 69 | |
| 20260904145602 | 64 | 279 | 12.0 | 22.0 | 0.00 | 0.29 | 0.28 | 69 | |
| 20260904145502 | 64 | 278 | 12.0 | 22.0 | 0.00 | 0.29 | 0.28 | 69 | |
| 20260904145423 | 64 | 276 | 12.0 | 19.0 | 0.00 | 0.29 | 0.28 | 69 | |
| 20260904145305 | 64 | 274 | 12.0 | 19.0 | 0.00 | 0.29 | 0.28 | 69 | |
| 20260904145203 | 64 | 275 | 12.0 | 22.0 | 0.00 | 0.29 | 0.28 | 69 | |
| 20260904145102 | 64 | 274 | 12.0 | 22.0 | 0.00 | 0.29 | 0.28 | 69 | |
| 20260904145002 | 64 | 275 | 13.0 | 22.0 | 0.00 | 0.29 | 0.28 | 69 | |
| 20260904144902 | 64 | 276 | 13.0 | 22.0 | 0.00 | 0.29 | 0.28 | 68 | |
| 20260904144802 | 64 | 276 | 13.0 | 23.0 | 0.00 | 0.29 | 0.28 | 69 | |
| 20260904144702 | 64 | 276 | 14.0 | 25.0 | 0.00 | 0.29 | 0.28 | 68 | |
| 20260904144602 | 64 | 277 | 15.0 | 26.0 | 0.00 | 0.29 | 0.28 | 68 | |
| 20260904144502 | 64 | 278 | 15.0 | 26.0 | 0.00 | 0.29 | 0.28 | 68 | |
| 20260904144402 | 64 | 280 | 15.0 | 26.0 | 0.00 | 0.29 | 0.28 | 67 | |
| 20260904144302 | 64 | 278 | 15.0 | 26.0 | 0.00 | 0.29 | 0.28 | 67 | |
| 20260904144202 | 64 | 278 | 15.0 | 26.0 | 0.00 | 0.29 | 0.28 | 67 | |
| 20260904144102 | 64 | 280 | 16.0 | 26.0 | 0.00 | 0.29 | 0.28 | 66 | |
| 20260904144002 | 64 | 281 | 16.0 | 26.0 | 0.00 | 0.29 | 0.28 | 67 | |
| 20260904143923 | 64 | 281 | 16.0 | 26.0 | 0.00 | 0.29 | 0.28 | 67 | |
| 20260904143802 | 64 | 279 | 16.0 | 26.0 | 0.00 | 0.29 | 0.28 | 66 | |
| 20260904143702 | 64 | 279 | 16.0 | 26.0 | 0.00 | 0.29 | 0.28 | 68 | |
| 20260904143623 | 64 | 279 | 16.0 | 25.0 | 0.00 | 0.29 | 0.28 | 68 | |
| 20260904143502 | 64 | 279 | 16.0 | 25.0 | 0.00 | 0.29 | 0.28 | 68 | |
| 20260904143402 | 64 | 278 | 16.0 | 25.0 | 0.00 | 0.29 | 0.28 | 69 | |
| 20260904143302 | 64 | 279 | 17.0 | 25.0 | 0.00 | 0.29 | 0.28 | 69 | |
| 20260904143202 | 64 | 278 | 16.0 | 25.0 | 0.00 | 0.29 | 0.28 | 68 | |
| 20260904143102 | 64 | 277 | 16.0 | 25.0 | 0.00 | 0.29 | 0.28 | 68 | |
| 20260904143002 | 64 | 274 | 16.0 | 25.0 | 0.00 | 0.29 | 0.28 | 68 | |
| 20260904142902 | 64 | 276 | 16.0 | 26.0 | 0.00 | 0.29 | 0.28 | 68 | |
| 20260904142802 | 64 | 278 | 16.0 | 26.0 | 0.00 | 0.29 | 0.28 | 68 | |
| 20260904142702 | 64 | 277 | 16.0 | 26.0 | 0.00 | 0.29 | 0.28 | 67 | |
| 20260904142602 | 64 | 275 | 16.0 | 26.0 | 0.00 | 0.29 | 0.28 | 67 | |
| 20260904142502 | 64 | 275 | 16.0 | 26.0 | 0.00 | 0.29 | 0.28 | 68 | |
| 20260904142402 | 64 | 276 | 16.0 | 26.0 | 0.00 | 0.29 | 0.28 | 69 | |
| 20260904142306 | 64 | 278 | 16.0 | 26.0 | 0.00 | 0.29 | 0.28 | 69 | |
| 20260904142202 | 64 | 279 | 17.0 | 26.0 | 0.00 | 0.29 | 0.28 | 69 | |
| 20260904142102 | 64 | 280 | 17.0 | 26.0 | 0.00 | 0.29 | 0.28 | 69 | |
| 20260904142002 | 64 | 281 | 17.0 | 26.0 | 0.00 | 0.29 | 0.28 | 69 | |
| 20260904141902 | 64 | 279 | 17.0 | 25.0 | 0.00 | 0.29 | 0.28 | 69 | |
| 20260904141802 | 64 | 280 | 17.0 | 25.0 | 0.00 | 0.29 | 0.28 | 69 | |
| 20260904141702 | 64 | 281 | 17.0 | 25.0 | 0.00 | 0.29 | 0.28 | 69 | |
| 20260904141602 | 64 | 283 | 18.0 | 25.0 | 0.00 | 0.29 | 0.28 | 69 | |
| 20260904141502 | 64 | 285 | 18.0 | 26.0 | 0.00 | 0.29 | 0.28 | 69 | |
| 20260904141402 | 64 | 286 | 18.0 | 26.0 | 0.00 | 0.29 | 0.28 | 70 | |
| 20260904141302 | 64 | 285 | 17.0 | 26.0 | 0.00 | 0.29 | 0.28 | 70 | |
| 20260904141202 | 64 | 284 | 17.0 | 26.0 | 0.00 | 0.29 | 0.28 | 69 | |
| 20260904141102 | 64 | 282 | 17.0 | 26.0 | 0.00 | 0.29 | 0.28 | 69 | |
| 20260904141002 | 64 | 282 | 17.0 | 26.0 | 0.00 | 0.29 | 0.28 | 70 | |
| 20260904140902 | 64 | 283 | 17.0 | 26.0 | 0.00 | 0.29 | 0.28 | 69 | |
| 20260904140823 | 64 | 283 | 17.0 | 26.0 | 0.00 | 0.29 | 0.28 | 69 | |
| 20260904140702 | 64 | 283 | 17.0 | 27.0 | 0.00 | 0.29 | 0.28 | 68 | |
| 20260904140602 | 64 | 283 | 16.0 | 27.0 | 0.00 | 0.29 | 0.28 | 70 | |
| 20260904140523 | 64 | 283 | 16.0 | 27.0 | 0.00 | 0.29 | 0.28 | 70 | |
| 20260904140402 | 64 | 280 | 17.0 | 28.0 | 0.00 | 0.29 | 0.28 | 70 | |
| 20260904140323 | 64 | 279 | 17.0 | 28.0 | 0.00 | 0.29 | 0.28 | 70 | |
| 20260904140223 | 64 | 279 | 17.0 | 28.0 | 0.00 | 0.29 | 0.28 | 69 | |
| 20260904140002 | 64 | 276 | 18.0 | 30.0 | 0.00 | 0.29 | 0.28 | 69 | |
| 20260904135902 | 64 | 275 | 18.0 | 30.0 | 0.00 | 0.29 | 0.28 | 69 | |
| 20260904135802 | 64 | 275 | 18.0 | 30.0 | 0.00 | 0.29 | 0.28 | 69 | |
| 20260904135702 | 64 | 274 | 18.0 | 30.0 | 0.00 | 0.29 | 0.28 | 69 | |
| 20260904135623 | 64 | 274 | 18.0 | 30.0 | 0.00 | 0.29 | 0.28 | 69 | |
| 20260904135502 | 64 | 272 | 18.0 | 30.0 | 0.00 | 0.29 | 0.28 | 68 | |
| 20260904135402 | 64 | 272 | 18.0 | 30.0 | 0.00 | 0.29 | 0.28 | 68 | |
| 20260904135305 | 64 | 274 | 17.0 | 30.0 | 0.00 | 0.29 | 0.28 | 68 | |
| 20260904135202 | 64 | 274 | 17.0 | 27.0 | 0.00 | 0.29 | 0.28 | 68 | |
| 20260904135123 | 64 | 275 | 17.0 | 27.0 | 0.00 | 0.29 | 0.28 | 68 | |
| 20260904135023 | 64 | 278 | 17.0 | 27.0 | 0.00 | 0.29 | 0.28 | 67 | |
| 20260904134902 | 65 | 280 | 18.0 | 30.0 | 0.00 | 0.29 | 0.28 | 69 | |
| 20260904134823 | 65 | 279 | 18.0 | 30.0 | 0.00 | 0.29 | 0.28 | 69 | |
| 20260904134702 | 65 | 279 | 18.0 | 30.0 | 0.00 | 0.29 | 0.28 | 69 | |
| 20260904134602 | 65 | 279 | 18.0 | 30.0 | 0.00 | 0.29 | 0.28 | 69 | |
| 20260904134502 | 65 | 279 | 19.0 | 30.0 | 0.00 | 0.29 | 0.28 | 69 | |
| 20260904134402 | 65 | 279 | 19.0 | 30.0 | 0.00 | 0.29 | 0.28 | 69 | |
| 20260904134324 | 65 | 277 | 19.0 | 30.0 | 0.00 | 0.29 | 0.28 | 69 | |
| 20260904134202 | 65 | 278 | 20.0 | 30.0 | 0.00 | 0.29 | 0.28 | 68 | |
| 20260904134102 | 65 | 279 | 20.0 | 30.0 | 0.00 | 0.29 | 0.28 | 68 | |
| 20260904134002 | 65 | 278 | 19.0 | 32.0 | 0.00 | 0.29 | 0.28 | 67 | |
| 20260904133923 | 65 | 277 | 19.0 | 32.0 | 0.00 | 0.29 | 0.28 | 67 | |
| 20260904133802 | 65 | 277 | 19.0 | 32.0 | 0.00 | 0.29 | 0.28 | 68 | |
| 20260904133702 | 65 | 277 | 19.0 | 32.0 | 0.00 | 0.29 | 0.28 | 68 | |
| 20260904133602 | 65 | 276 | 19.0 | 32.0 | 0.00 | 0.29 | 0.28 | 68 | |
| 20260904133502 | 65 | 277 | 19.0 | 32.0 | 0.00 | 0.29 | 0.28 | 68 | |
| 20260904133402 | 65 | 277 | 19.0 | 32.0 | 0.00 | 0.29 | 0.28 | 69 | |
| 20260904133323 | 65 | 277 | 19.0 | 32.0 | 0.00 | 0.29 | 0.28 | 69 | |
| 20260904133202 | 65 | 275 | 19.0 | 32.0 | 0.00 | 0.29 | 0.28 | 69 | |
| 20260904133102 | 65 | 275 | 19.0 | 32.0 | 0.00 | 0.29 | 0.28 | 69 | |
| 20260904133002 | 65 | 274 | 19.0 | 30.0 | 0.00 | 0.29 | 0.28 | 70 | |
| 20260904132902 | 65 | 274 | 19.0 | 30.0 | 0.00 | 0.29 | 0.28 | 69 | |
| 20260904132802 | 65 | 273 | 20.0 | 30.0 | 0.00 | 0.29 | 0.28 | 68 | |
| 20260904132702 | 65 | 274 | 20.0 | 32.0 | 0.00 | 0.29 | 0.28 | 68 | |
| 20260904132602 | 65 | 275 | 20.0 | 32.0 | 0.00 | 0.29 | 0.28 | 68 | |
| 20260904132502 | 65 | 275 | 20.0 | 32.0 | 0.00 | 0.29 | 0.28 | 68 | |
| 20260904132403 | 65 | 273 | 20.0 | 32.0 | 0.00 | 0.29 | 0.28 | 69 | |
| 20260904132323 | 65 | 273 | 20.0 | 32.0 | 0.00 | 0.29 | 0.28 | 69 | |
| 20260904132202 | 65 | 272 | 20.0 | 32.0 | 0.00 | 0.29 | 0.28 | 70 | |
| 20260904132123 | 65 | 271 | 20.0 | 32.0 | 0.00 | 0.29 | 0.28 | 70 | |
| 20260904132002 | 65 | 270 | 20.0 | 32.0 | 0.00 | 0.29 | 0.28 | 69 | |
| 20260904131902 | 64 | 270 | 19.0 | 32.0 | 0.00 | 0.29 | 0.28 | 69 | |
| 20260904131802 | 64 | 271 | 19.0 | 32.0 | 0.00 | 0.29 | 0.28 | 69 | |
| 20260904131703 | 64 | 268 | 19.0 | 32.0 | 0.00 | 0.29 | 0.28 | 69 | |
| 20260904131602 | 64 | 268 | 18.0 | 32.0 | 0.00 | 0.29 | 0.28 | 69 | |
| 20260904131502 | 64 | 268 | 18.0 | 32.0 | 0.00 | 0.29 | 0.28 | 70 | |
| 20260904131402 | 64 | 269 | 18.0 | 32.0 | 0.00 | 0.29 | 0.28 | 70 | |
| 20260904131302 | 64 | 269 | 18.0 | 32.0 | 0.00 | 0.29 | 0.28 | 71 | |
| 20260904131202 | 64 | 269 | 18.0 | 29.0 | 0.00 | 0.29 | 0.28 | 70 | |
| 20260904131102 | 64 | 269 | 17.0 | 29.0 | 0.00 | 0.29 | 0.28 | 70 | |
| 20260904131023 | 64 | 269 | 17.0 | 29.0 | 0.00 | 0.29 | 0.28 | 70 | |
| 20260904130902 | 65 | 269 | 18.0 | 29.0 | 0.00 | 0.29 | 0.28 | 69 | |
| 20260904130802 | 65 | 266 | 17.0 | 29.0 | 0.00 | 0.29 | 0.28 | 70 | |
| 20260904130702 | 65 | 266 | 16.0 | 28.0 | 0.00 | 0.29 | 0.28 | 70 | |
| 20260904130602 | 65 | 266 | 16.0 | 28.0 | 0.00 | 0.29 | 0.28 | 70 | |
| 20260904130502 | 65 | 265 | 17.0 | 28.0 | 0.00 | 0.29 | 0.28 | 70 | |
| 20260904130402 | 65 | 266 | 17.0 | 28.0 | 0.00 | 0.29 | 0.28 | 71 | |
| 20260904130302 | 65 | 268 | 16.0 | 28.0 | 0.00 | 0.29 | 0.28 | 71 | |
| 20260904130203 | 64 | 269 | 16.0 | 28.0 | 0.00 | 0.29 | 0.28 | 71 | |
| 20260904130023 | 64 | 270 | 17.0 | 26.0 | 0.00 | 0.29 | 0.28 | 70 | |
| 20260904125903 | 64 | 271 | 16.0 | 26.0 | 0.00 | 0.29 | 0.28 | 71 | |
| 20260904125802 | 64 | 272 | 16.0 | 25.0 | 0.00 | 0.29 | 0.28 | 72 | |
| 20260904125702 | 64 | 274 | 16.0 | 25.0 | 0.00 | 0.29 | 0.28 | 71 | |
| 20260904125602 | 64 | 275 | 16.0 | 25.0 | 0.00 | 0.29 | 0.28 | 71 | |
| 20260904125502 | 64 | 275 | 16.0 | 25.0 | 0.00 | 0.29 | 0.28 | 71 | |
| 20260904125402 | 64 | 274 | 16.0 | 25.0 | 0.00 | 0.29 | 0.28 | 71 | |
| 20260904125323 | 64 | 274 | 16.0 | 25.0 | 0.00 | 0.29 | 0.28 | 71 | |
| 20260904125202 | 64 | 273 | 15.0 | 25.0 | 0.00 | 0.29 | 0.28 | 71 | |
| 20260904125123 | 64 | 273 | 15.0 | 25.0 | 0.00 | 0.29 | 0.28 | 71 | |
| 20260904125023 | 64 | 273 | 16.0 | 27.0 | 0.00 | 0.29 | 0.28 | 71 | |
| 20260904124923 | 64 | 274 | 15.0 | 27.0 | 0.00 | 0.29 | 0.28 | 71 | |
| 20260904124802 | 64 | 275 | 15.0 | 27.0 | 0.00 | 0.29 | 0.28 | 71 | |
| 20260904124702 | 64 | 275 | 14.0 | 27.0 | 0.00 | 0.29 | 0.28 | 71 | |
| 20260904124602 | 64 | 273 | 15.0 | 27.0 | 0.00 | 0.29 | 0.28 | 71 | |
| 20260904124502 | 64 | 272 | 15.0 | 27.0 | 0.00 | 0.29 | 0.28 | 72 | |
| 20260904124404 | 64 | 273 | 16.0 | 27.0 | 0.00 | 0.29 | 0.28 | 72 | |
| 20260904124323 | 64 | 271 | 16.0 | 27.0 | 0.00 | 0.29 | 0.28 | 72 | |
| 20260904124223 | 64 | 273 | 17.0 | 28.0 | 0.00 | 0.29 | 0.28 | 71 | |
| 20260904124102 | 64 | 272 | 17.0 | 28.0 | 0.00 | 0.29 | 0.28 | 71 | |
| 20260904124002 | 64 | 272 | 17.0 | 28.0 | 0.00 | 0.29 | 0.28 | 71 | |
| 20260904123902 | 64 | 272 | 18.0 | 28.0 | 0.00 | 0.29 | 0.28 | 71 | |
| 20260904123802 | 64 | 273 | 18.0 | 28.0 | 0.00 | 0.29 | 0.28 | 71 | |
| 20260904123702 | 64 | 273 | 17.0 | 28.0 | 0.00 | 0.29 | 0.28 | 71 | |
| 20260904123602 | 64 | 275 | 17.0 | 28.0 | 0.00 | 0.29 | 0.28 | 71 | |
| 20260904123502 | 64 | 276 | 17.0 | 28.0 | 0.00 | 0.29 | 0.28 | 71 | |
| 20260904123402 | 64 | 278 | 17.0 | 28.0 | 0.00 | 0.29 | 0.28 | 70 | |
| 20260904123302 | 64 | 280 | 16.0 | 28.0 | 0.00 | 0.29 | 0.28 | 70 | |
| 20260904123202 | 64 | 279 | 16.0 | 28.0 | 0.00 | 0.29 | 0.28 | 70 | |
| 20260904123102 | 64 | 278 | 16.0 | 28.0 | 0.00 | 0.29 | 0.28 | 71 | |
| 20260904123002 | 64 | 277 | 17.0 | 27.0 | 0.00 | 0.29 | 0.28 | 70 | |
| 20260904122903 | 64 | 278 | 16.0 | 27.0 | 0.00 | 0.29 | 0.28 | 71 | |
| 20260904122802 | 64 | 279 | 16.0 | 25.0 | 0.00 | 0.29 | 0.28 | 72 | |
| 20260904122703 | 64 | 281 | 17.0 | 26.0 | 0.00 | 0.29 | 0.28 | 71 | |
| 20260904122602 | 64 | 280 | 18.0 | 26.0 | 0.00 | 0.29 | 0.28 | 70 | |
| 20260904122502 | 64 | 281 | 18.0 | 29.0 | 0.00 | 0.29 | 0.28 | 70 | |
| 20260904122404 | 64 | 281 | 18.0 | 29.0 | 0.00 | 0.29 | 0.28 | 70 | |
| 20260904122323 | 64 | 281 | 18.0 | 29.0 | 0.00 | 0.29 | 0.28 | 70 | |
| 20260904122202 | 64 | 282 | 18.0 | 29.0 | 0.00 | 0.29 | 0.28 | 70 | |
| 20260904122102 | 64 | 283 | 18.0 | 29.0 | 0.00 | 0.29 | 0.28 | 71 | |
| 20260904122002 | 64 | 283 | 18.0 | 29.0 | 0.00 | 0.29 | 0.28 | 71 | |
| 20260904121902 | 64 | 283 | 18.0 | 29.0 | 0.00 | 0.29 | 0.28 | 71 | |
| 20260904121802 | 64 | 283 | 18.0 | 29.0 | 0.00 | 0.29 | 0.28 | 71 | |
| 20260904121702 | 64 | 282 | 18.0 | 29.0 | 0.00 | 0.29 | 0.28 | 71 | |
| 20260904121623 | 64 | 282 | 18.0 | 29.0 | 0.00 | 0.29 | 0.28 | 71 | |
| 20260904121502 | 64 | 281 | 18.0 | 28.0 | 0.00 | 0.29 | 0.28 | 72 | |
| 20260904121402 | 64 | 281 | 18.0 | 27.0 | 0.00 | 0.29 | 0.28 | 71 | |
| 20260904121302 | 64 | 280 | 18.0 | 27.0 | 0.00 | 0.29 | 0.28 | 71 | |
| 20260904121202 | 64 | 280 | 18.0 | 27.0 | 0.00 | 0.29 | 0.28 | 71 | |
| 20260904121102 | 63 | 279 | 18.0 | 27.0 | 0.00 | 0.29 | 0.28 | 71 | |
| 20260904121023 | 63 | 280 | 18.0 | 27.0 | 0.00 | 0.29 | 0.28 | 71 | |
| 20260904120902 | 64 | 278 | 17.0 | 27.0 | 0.00 | 0.29 | 0.28 | 70 | |
| 20260904120823 | 64 | 279 | 17.0 | 27.0 | 0.00 | 0.29 | 0.28 | 70 | |
| 20260904120723 | 63 | 280 | 17.0 | 27.0 | 0.00 | 0.29 | 0.28 | 71 | |
| 20260904120602 | 63 | 281 | 18.0 | 27.0 | 0.00 | 0.29 | 0.28 | 71 | |
| 20260904120502 | 63 | 282 | 18.0 | 27.0 | 0.00 | 0.29 | 0.28 | 71 | |
| 20260904120402 | 63 | 282 | 18.0 | 27.0 | 0.00 | 0.29 | 0.28 | 71 | |
| 20260904120302 | 64 | 282 | 18.0 | 27.0 | 0.00 | 0.29 | 0.28 | 71 | |
| 20260904120202 | 63 | 282 | 17.0 | 27.0 | 0.00 | 0.29 | 0.28 | 71 | |
| 20260904120024 | 63 | 284 | 17.0 | 27.0 | 0.00 | 0.29 | 0.28 | 71 | |
| 20260904115902 | 64 | 284 | 17.0 | 27.0 | 0.00 | 0.29 | 0.28 | 70 | |
| 20260904115802 | 64 | 283 | 17.0 | 27.0 | 0.00 | 0.29 | 0.28 | 71 | |
| 20260904115702 | 64 | 282 | 17.0 | 25.0 | 0.00 | 0.29 | 0.28 | 71 | |
| 20260904115602 | 64 | 281 | 17.0 | 27.0 | 0.00 | 0.29 | 0.28 | 71 | |
| 20260904115523 | 64 | 280 | 17.0 | 27.0 | 0.00 | 0.29 | 0.28 | 71 | |
| 20260904115402 | 64 | 276 | 17.0 | 27.0 | 0.00 | 0.29 | 0.28 | 71 | |
| 20260904115306 | 64 | 276 | 17.0 | 27.0 | 0.00 | 0.29 | 0.28 | 72 | |
| 20260904115202 | 64 | 277 | 17.0 | 27.0 | 0.00 | 0.29 | 0.28 | 71 | |
| 20260904115102 | 64 | 276 | 17.0 | 27.0 | 0.00 | 0.29 | 0.28 | 72 |